GEFSNE_500_meanwind_000.txt.gz
Wind_Speed
58 68 77 82 86 87 89 89 86 84 82 79 74 74 75 73 73 73 72 70 68 65 62 61 61 61 62 61 59 59 55 52 49 48 52 49 46 43
45 53 62 70 77 81 85 87 88 87 85 82 78 74 74 75 73 72 73 73 71 69 67 65 63 62 63 63 63 62 59 59 55 51 44 48 48 47
38 41 48 54 62 71 77 81 84 86 85 82 81 79 75 76 74 71 72 73 72 70 69 69 68 67 67 66 66 64 62 58 55 55 49 52 53 54
37 37 40 42 45 51 60 71 79 83 84 81 79 80 78 78 76 73 72 71 71 68 68 68 69 69 69 69 67 66 66 63 61 60 66 68 60 59
39 38 38 39 39 41 47 55 65 75 82 83 80 79 79 79 78 78 77 74 73 71 70 68 69 71 72 72 71 70 70 66 67 70 68 68 66 63
40 42 42 41 42 42 43 47 53 61 69 77 77 77 83 82 76 74 76 77 76 74 73 71 72 73 72 70 73 75 75 72 71 67 64 66 66 64
44 43 44 43 42 43 46 48 50 56 59 65 69 66 75 78 76 69 68 69 73 73 75 74 73 76 75 71 70 71 73 74 73 72 69 69 67 64
45 44 44 42 41 45 49 48 47 53 51 54 69 69 67 69 71 70 69 69 71 73 74 75 75 72 74 76 73 71 71 72 72 73 73 74 73 73
42 42 41 40 39 35 35 36 38 49 48 49 53 61 63 65 65 66 70 76 75 72 72 72 74 73 74 74 71 69 70 71 72 73 73 73 74 76
40 40 37 35 36 35 39 40 39 47 51 56 55 56 57 56 63 64 58 64 72 72 70 68 69 69 70 71 72 74 73 74 74 75 75 76 77 78
42 40 38 38 36 41 46 40 39 48 53 56 55 58 58 60 55 52 55 63 66 69 70 70 69 67 68 68 68 69 69 71 73 74 75 75 77 78
44 44 45 46 40 40 41 37 38 44 51 54 50 52 49 47 54 62 59 57 60 60 59 61 64 62 59 64 68 68 67 67 68 70 72 73 74 74
45 46 49 50 47 42 39 40 40 41 43 43 46 50 51 49 48 51 54 55 54 56 58 60 59 58 58 59 60 60 60 63 63 65 68 69 69 68
46 46 48 51 51 47 43 42 42 43 43 44 47 49 49 50 53 54 52 53 56 58 60 58 57 58 60 62 61 60 58 60 58 56 57 58 59 60
46 46 47 48 50 51 48 46 44 43 43 43 43 45 46 47 50 53 54 54 56 57 59 61 62 62 62 60 57 57 58 57 55 55 55 55 54 54
43 46 47 47 47 49 51 51 48 46 46 46 45 44 44 43 44 47 48 51 51 50 52 55 56 57 58 59 56 54 54 52 52 51 50 50 51 52
40 44 46 48 47 47 48 50 52 50 49 50 50 50 50 48 46 46 48 49 49 49 47 46 44 46 51 53 53 53 52 51 50 50 50 48 48 49
30 40 44 47 49 49 48 48 49 53 55 54 54 54 53 53 52 51 50 50 49 49 50 49 47 47 50 52 52 50 49 48 47 48 49 50 49 47
21 29 39 45 48 51 51 50 48 48 52 58 61 59 57 55 54 54 55 54 53 50 49 48 48 48 50 50 49 48 47 47 48 50 52 53 52 50
15 20 28 38 46 49 51 52 51 49 47 48 55 61 59 57 55 53 54 57 55 52 50 48 47 47 47 47 47 47 45 44 46 48 50 50 51 49
12 15 20 27 37 46 49 51 52 52 49 47 48 54 58 58 55 53 52 55 55 51 49 47 46 46 45 45 44 42 42 41 42 44 45 45 45 45
9 11 14 18 25 35 46 50 52 53 53 52 49 49 50 52 51 50 49 50 49 48 47 46 46 45 44 43 42 42 42 41 40 39 38 37 38 40
9 7 8 12 16 23 34 45 51 53 54 55 53 51 50 49 49 49 48 47 46 46 45 45 44 44 42 41 40 39 39 39 38 37 35 35 37 40

GEFSNE_500_meanwind_006.txt.gz
Wind_Speed
45 44 43 45 52 72 91 98 97 92 88 81 75 73 69 66 65 70 73 73 72 71 68 65 63 61 59 56 54 52 50 50 50 48 48 48 48 47
43 40 39 41 44 55 75 91 97 96 91 87 83 79 75 69 62 64 69 71 72 72 71 68 65 62 59 58 56 55 54 53 51 50 49 47 45 44
41 39 37 37 40 45 57 75 89 95 93 89 87 84 80 76 68 65 65 65 67 70 71 69 67 65 62 60 59 58 57 56 54 53 50 49 47 45
41 39 37 36 37 41 47 60 75 88 92 90 88 86 84 81 75 71 68 64 63 64 66 67 67 66 64 63 62 60 60 59 57 56 53 51 48 46
39 39 37 36 36 37 42 50 63 76 85 87 85 85 84 82 78 74 72 68 65 63 62 62 63 65 64 63 62 60 59 58 57 56 54 53 51 50
38 39 37 36 35 35 38 44 54 65 74 79 81 81 81 81 79 75 73 71 68 65 63 61 60 61 63 63 62 60 59 57 55 53 53 53 54 53
35 38 38 35 35 35 36 38 46 55 64 70 73 75 76 78 78 76 74 72 68 65 63 62 61 60 61 62 63 62 60 59 57 56 55 54 55 55
33 36 37 36 35 35 35 36 40 46 53 60 65 69 72 75 76 76 75 73 69 67 63 62 62 60 59 59 60 62 63 63 62 61 61 60 59 58
32 35 37 37 36 37 37 36 38 41 46 51 56 60 64 69 71 72 73 71 68 66 65 62 62 62 60 58 58 58 58 58 59 59 59 58 57 56
31 35 36 38 38 38 38 38 38 39 42 46 49 51 55 59 62 66 68 68 67 65 63 62 63 62 62 60 58 58 57 55 55 55 55 56 57 59
31 35 36 37 39 39 39 39 39 40 41 43 44 46 48 51 55 60 64 65 65 64 63 63 63 63 64 63 62 60 58 57 57 57 57 58 60 60
31 36 38 38 38 38 39 39 39 40 41 40 40 41 41 44 48 52 56 60 63 64 64 62 61 63 64 64 63 63 64 66 67 66 65 65 66 66
32 37 39 39 38 38 38 38 38 38 38 38 38 37 38 40 43 46 49 53 56 60 64 66 68 69 66 63 61 61 62 64 65 66 67 68 68 68
32 38 41 42 41 40 39 38 38 37 36 35 34 33 34 37 41 45 47 50 53 55 58 60 62 64 64 64 65 67 68 69 68 68 68 67 66 66
28 38 41 43 44 43 41 40 39 38 37 35 33 34 35 38 43 48 51 54 55 56 58 59 60 60 59 60 61 65 68 70 71 72 72 71 69 66
23 34 40 43 45 45 43 42 41 40 39 38 37 37 42 43 44 49 52 54 55 55 56 55 55 56 58 59 60 61 62 62 62 62 63 62 61 60
17 28 37 41 44 46 45 44 42 41 40 41 40 40 43 46 46 46 50 53 53 53 53 53 53 54 54 55 57 60 60 59 56 55 55 55 55 55
10 21 32 39 43 46 47 47 45 43 42 42 43 42 42 43 45 46 45 47 51 51 51 52 53 52 51 51 51 51 50 49 48 48 48 49 49 49
6 15 26 35 41 44 47 48 48 46 44 44 44 43 42 41 41 43 44 44 44 47 49 49 50 50 51 51 51 51 49 49 49 49 48 48 48 48
6 8 18 29 37 42 45 47 49 49 47 46 46 45 44 43 43 43 43 44 45 46 47 49 49 50 51 52 52 53 54 54 54 53 52 50 48 47
7 5 9 20 31 38 43 45 47 49 50 49 49 48 47 46 46 47 47 46 46 48 49 50 50 50 50 51 52 53 54 55 55 54 52 49 47 45
19 9 4 7 19 30 38 43 45 46 49 51 51 51 51 50 49 49 50 50 50 49 50 51 52 52 52 51 51 51 51 50 50 49 48 46 44 43
40 27 15 5 4 15 28 37 43 46 47 49 52 54 54 53 53 52 52 52 52 51 51 50 51 52 52 52 51 50 49 47 45 44 43 43 42 42

GEFSNE_500_meanwind_012.txt.gz
Wind_Speed
36 41 47 53 63 72 75 73 69 68 76 89 99 102 102 100 96 90 84 82 78 76 76 73 70 69 67 65 64 62 60 58 54 49 47 47 49 52
33 37 43 47 55 66 72 74 70 65 68 78 93 100 99 97 95 93 88 85 82 79 77 75 72 69 68 67 65 64 62 59 56 53 50 49 48 50
31 33 39 44 50 60 68 72 70 63 61 69 82 95 96 94 91 90 88 86 85 82 79 77 74 71 69 68 66 64 63 61 57 54 52 51 51 51
28 30 36 41 46 54 63 68 68 64 58 60 72 87 93 91 88 87 86 86 85 84 80 78 76 73 70 68 67 66 63 61 59 56 53 51 51 51
26 28 33 38 42 49 58 64 65 63 59 54 62 77 88 88 85 83 84 85 84 84 82 79 77 75 72 69 67 66 64 62 60 58 57 55 51 49
23 26 30 35 39 45 53 59 61 59 58 53 55 67 81 84 82 79 80 85 85 83 82 80 78 75 74 71 68 66 65 63 61 59 58 58 56 52
20 24 28 33 37 41 48 53 56 56 55 53 53 61 76 83 82 78 76 81 83 82 81 80 78 75 73 71 70 67 65 64 62 60 59 58 57 54
17 22 27 31 34 38 43 48 50 51 50 50 52 60 74 87 87 81 75 76 79 81 81 80 79 76 72 70 69 68 66 64 63 61 59 58 57 55
14 21 26 29 32 36 40 43 44 44 44 45 49 57 74 89 91 83 78 77 78 80 80 79 79 76 72 70 68 67 67 66 64 63 62 59 57 56
13 20 25 28 31 34 36 38 39 38 37 38 43 52 71 90 97 91 82 78 77 79 81 78 77 75 72 70 68 67 66 67 66 66 64 62 59 57
13 20 24 28 30 32 33 34 34 33 32 33 36 46 64 87 99 99 90 80 77 79 80 79 76 74 71 69 67 66 65 66 67 67 66 63 61 58
12 18 24 28 30 31 30 30 30 29 28 29 32 39 53 76 96 101 96 87 79 78 78 77 74 71 68 67 65 63 62 62 63 64 64 63 61 58
10 16 22 27 30 30 29 28 27 26 25 25 28 34 45 60 79 91 95 89 82 78 76 74 72 69 66 64 63 61 59 58 58 58 59 59 58 57
7 13 20 26 29 30 29 28 27 25 24 23 25 30 38 49 60 71 79 81 80 77 73 71 68 64 62 61 60 59 57 56 55 54 53 53 53 53
3 10 18 24 28 29 29 28 27 25 24 23 24 28 34 43 50 57 62 66 71 73 71 68 65 60 58 57 57 56 55 55 54 52 51 50 50 50
0 7 15 22 27 28 29 28 27 25 24 23 23 26 30 37 44 50 56 61 64 67 67 66 64 60 57 55 55 54 52 52 52 52 52 52 52 53
5 3 12 20 25 28 28 28 27 26 25 24 23 25 28 33 39 45 51 56 60 63 64 65 64 62 59 57 56 55 53 52 51 52 53 54 55 55
11 3 7 16 24 28 28 29 28 27 26 25 24 25 27 30 35 40 47 53 58 60 62 63 64 63 62 61 59 56 54 54 55 56 57 57 58 58
16 9 2 11 20 26 29 29 29 28 28 27 27 27 28 29 32 36 42 48 55 59 60 61 62 62 61 60 59 59 57 58 59 60 60 61 61 61
25 17 8 3 14 23 28 30 30 30 29 30 29 28 28 29 31 33 38 43 50 56 59 61 62 63 63 61 60 60 61 61 61 62 63 62 61 61
38 27 17 7 5 17 25 30 31 31 31 31 32 31 30 30 31 31 34 38 44 51 56 60 62 64 64 64 62 61 61 62 61 60 60 59 58 57
46 40 29 18 7 7 18 27 31 33 33 33 34 34 34 33 33 33 34 36 40 46 50 54 58 62 63 62 61 60 58 58 59 58 56 54 53 52
44 42 39 31 20 7 7 19 28 33 35 35 35 35 36 36 36 36 37 37 39 43 47 49 51 54 57 59 59 58 56 54 54 53 52 50 47 46

GEFSNE_500_meanwind_018.txt.gz
Wind_Speed
37 38 40 41 42 44 45 50 61 72 81 84 85 91 101 106 105 100 99 100 97 94 88 83 81 80 78 74 65 59 56 53 55 55 55 54 51 47
29 32 34 36 38 40 43 46 55 67 76 82 82 84 91 100 105 102 98 99 98 96 90 84 81 79 78 76 73 66 61 58 53 53 53 54 52 49
21 26 29 32 34 37 40 44 50 61 71 78 81 81 84 92 102 104 99 96 98 98 94 88 82 78 77 75 73 70 66 62 56 52 53 53 50 48
13 19 24 28 30 33 37 41 46 55 66 74 80 79 79 84 94 102 101 97 97 98 95 91 85 80 77 75 73 70 68 67 62 55 50 51 51 49
8 14 20 24 27 29 33 37 42 49 60 69 76 79 76 78 86 97 101 98 96 96 95 93 88 82 78 75 73 71 67 66 65 62 54 51 51 49
8 13 17 21 23 26 29 33 38 45 55 65 72 77 76 74 77 90 99 100 97 94 93 90 87 83 79 76 73 71 68 66 66 63 60 55 52 50
9 12 16 18 20 22 26 30 35 41 50 60 69 74 75 72 72 81 92 99 98 93 89 86 83 80 78 76 75 72 69 67 67 66 64 59 54 49
9 11 13 15 17 19 23 27 33 39 47 56 65 71 73 70 68 71 82 93 98 94 89 84 81 80 79 77 75 72 69 68 68 67 64 62 58 52
9 9 10 12 14 17 20 25 30 36 44 53 62 68 69 67 64 64 72 83 92 95 91 83 79 78 78 78 77 74 70 68 68 67 66 63 60 58
7 6 6 9 12 15 19 23 28 34 42 50 58 64 65 63 60 60 63 71 82 92 92 84 78 76 77 76 75 73 71 69 67 66 66 65 63 60
7 3 3 7 11 15 18 22 26 32 39 47 54 60 62 59 56 54 58 64 73 82 86 83 77 75 75 74 74 73 72 70 67 66 66 65 64 63
9 4 3 8 12 16 19 22 25 31 38 44 51 56 58 57 52 49 51 58 66 74 81 79 75 73 74 73 72 72 71 70 68 67 66 65 64 64
11 6 7 10 14 17 19 21 25 30 36 41 46 51 54 54 50 45 45 51 60 67 73 75 72 72 74 74 72 71 71 70 69 68 66 64 64 63
13 9 9 12 16 18 20 21 24 29 33 37 41 46 49 50 48 44 42 46 55 63 69 72 72 71 70 72 74 73 72 71 70 68 66 65 63 63
15 11 11 14 17 18 20 21 24 27 30 34 36 40 43 46 47 44 42 45 52 63 69 71 70 70 69 70 72 74 73 73 72 70 68 65 62 61
18 12 12 14 17 18 19 20 22 24 26 28 31 34 38 41 43 44 44 47 51 63 71 72 69 67 67 67 69 73 74 73 72 71 69 65 62 60
23 14 11 13 15 16 17 19 20 21 22 23 25 28 31 35 39 43 45 48 52 63 71 72 70 66 63 62 64 69 72 72 70 69 67 65 63 61
28 18 11 10 13 14 15 17 18 19 19 19 19 21 24 28 33 38 44 49 54 62 69 69 67 65 61 57 58 63 69 70 69 66 64 63 62 61
36 25 14 8 10 12 13 15 16 17 17 17 16 17 18 21 25 31 38 46 53 61 67 69 66 63 58 56 58 61 65 67 67 66 65 63 63 62
43 34 22 10 6 9 12 14 15 17 17 16 16 15 16 17 20 24 32 40 48 56 63 67 65 61 56 55 55 59 63 64 66 65 64 64 63 62
44 41 32 20 8 5 10 13 15 17 17 17 16 16 16 16 18 21 27 35 42 50 56 62 63 61 56 54 55 58 61 63 62 62 62 62 62 60
40 40 38 31 20 7 5 12 15 17 17 18 17 17 16 17 18 20 25 31 38 45 51 55 60 61 58 56 55 56 57 59 60 59 59 58 57 55
36 35 35 34 30 20 8 4 12 16 18 19 19 18 18 18 19 21 24 30 37 44 49 52 56 58 58 57 57 56 55 56 56 56 56 56 55 53

GEFSNE_500_meanwind_024.txt.gz
Wind_Speed
19 11 3 14 27 38 46 52 55 57 59 60 62 70 82 91 96 105 113 114 114 112 108 104 99 94 88 81 74 70 73 76 76 76 74 71 68 64
13 9 4 7 18 29 38 45 50 53 55 59 60 65 75 84 90 97 108 113 113 112 110 106 102 98 92 85 76 68 68 73 75 74 72 71 69 65
9 7 5 7 13 22 30 37 44 49 52 55 58 60 69 78 85 92 102 111 113 113 111 108 105 101 96 90 85 73 65 69 72 72 70 69 67 64
13 10 9 10 13 18 25 31 37 43 47 50 55 57 63 72 80 88 97 107 112 113 112 110 108 104 100 95 91 82 69 65 67 70 68 66 63 61
16 14 13 12 14 17 21 26 32 37 42 45 49 53 58 66 74 83 92 103 110 112 112 112 110 107 104 99 95 89 75 64 61 61 64 64 60 57
18 16 15 14 15 17 20 23 28 32 37 41 45 48 53 61 70 80 88 99 107 111 112 112 111 108 105 103 96 90 80 72 63 58 56 59 59 56
18 15 13 13 14 16 18 21 24 29 33 37 40 44 49 57 66 76 84 94 104 110 110 109 108 107 105 102 98 90 82 75 66 58 56 56 54 56
17 13 10 9 11 13 16 18 21 25 29 33 36 39 45 53 63 72 79 89 99 107 108 106 105 103 102 100 98 94 86 77 73 64 56 55 53 51
18 13 8 5 5 8 12 15 18 21 25 30 33 36 42 50 60 68 75 84 94 102 104 103 101 97 97 96 96 94 89 82 75 71 64 58 56 52
19 15 10 5 1 3 7 11 15 19 22 26 29 32 39 48 57 65 71 78 87 95 99 99 97 94 92 92 92 90 86 83 78 73 69 63 57 53
21 17 13 10 6 4 3 6 10 15 19 23 26 30 37 46 55 62 68 74 80 89 94 95 93 90 88 87 88 87 84 80 76 71 67 64 61 55
23 20 16 14 11 8 6 4 6 10 15 20 24 29 37 46 54 60 64 69 75 82 90 92 90 88 85 84 83 84 82 79 74 70 66 62 59 57
24 22 19 17 15 13 10 7 5 6 11 16 22 28 36 45 53 58 62 66 71 77 85 89 87 86 83 81 79 79 81 79 75 70 66 62 59 57
24 21 19 18 17 15 13 11 8 6 7 13 20 28 36 45 52 56 59 62 66 71 79 86 87 85 82 80 77 75 76 78 76 72 67 63 61 59
24 21 19 18 17 16 14 13 11 9 7 10 18 27 36 44 50 53 55 57 60 66 72 80 85 85 82 79 77 76 75 75 76 73 69 66 63 60
24 20 18 17 16 16 15 14 12 11 9 10 16 25 35 42 47 50 51 51 53 58 65 73 80 83 81 78 75 74 74 74 73 74 72 68 65 62
27 20 17 15 15 15 15 14 13 12 12 13 17 24 33 40 44 47 47 47 47 50 56 64 73 79 80 77 74 72 71 72 73 72 71 69 67 64
35 23 17 14 12 12 12 13 13 13 14 15 18 24 31 37 41 43 44 43 42 44 48 54 62 70 75 75 74 70 69 70 70 71 71 70 68 65
39 31 20 14 11 9 10 10 11 13 14 15 18 22 28 33 38 40 40 40 39 40 42 47 53 60 67 72 73 70 67 67 67 67 68 68 68 66
37 35 28 18 11 8 7 7 9 11 13 15 17 20 24 29 33 37 38 38 38 39 40 43 48 53 58 65 70 71 69 68 68 67 67 67 67 66
34 34 31 26 17 9 5 4 6 9 11 13 15 17 20 24 28 33 36 37 37 37 39 42 45 50 55 59 64 69 70 68 67 67 66 66 65 65
32 31 30 28 24 16 8 2 4 7 9 11 13 16 18 21 25 28 32 35 37 38 39 42 45 49 55 58 60 63 66 67 66 67 67 64 62 63
30 29 28 28 26 21 14 7 1 6 9 11 13 14 16 19 22 25 28 32 36 39 41 44 47 50 55 60 61 62 63 65 66 67 65 63 62 60

GEFSNE_500_meanwind_030.txt.gz
Wind_Speed
35 31 27 23 20 17 13 9 12 24 39 52 61 67 70 70 68 68 73 83 96 109 118 124 123 120 116 112 106 101 97 92 87 82 76 72 68 64
37 32 27 23 20 17 14 11 12 21 33 46 56 63 67 67 66 64 64 72 85 99 110 119 122 121 118 114 108 104 100 95 90 84 79 74 70 67
38 34 28 23 19 17 16 14 14 20 29 39 50 58 63 65 64 61 59 63 74 89 102 113 119 121 119 116 111 106 102 97 92 86 81 76 72 68
39 34 29 23 18 17 16 15 15 18 25 34 44 53 59 62 62 60 56 57 66 80 94 106 115 120 118 117 113 108 103 99 94 88 82 78 73 70
40 35 30 24 18 16 15 15 15 16 22 30 39 47 54 59 60 59 56 53 59 72 87 100 111 117 118 116 114 109 105 99 94 89 85 79 75 71
41 36 31 25 19 15 13 13 13 15 18 26 34 42 49 54 56 57 55 52 54 66 81 93 105 114 117 115 113 110 105 101 95 90 86 80 76 72
42 38 34 28 22 17 13 11 11 13 16 21 29 37 43 49 52 54 52 50 52 62 76 89 100 110 115 114 113 111 106 101 95 89 85 80 75 72
43 39 35 31 25 20 15 11 9 10 14 17 23 31 38 44 48 50 50 49 50 59 72 85 96 106 112 111 111 110 106 102 96 90 85 81 74 70
41 39 37 33 28 22 17 13 8 7 10 14 19 26 33 39 42 45 46 46 48 56 69 81 92 100 108 108 109 109 106 102 96 90 85 80 75 70
40 38 37 34 30 25 20 15 10 5 6 11 16 22 28 34 38 41 43 44 47 55 67 78 89 96 104 105 106 107 106 101 96 91 84 80 75 69
38 37 35 34 32 27 23 17 12 7 4 8 14 20 25 29 33 37 40 42 47 56 66 76 85 92 99 101 102 104 104 101 97 92 85 78 72 67
37 35 34 33 32 29 25 21 15 9 3 5 11 17 23 27 30 34 38 42 47 56 66 74 82 90 95 97 98 101 101 100 97 91 85 78 70 66
36 33 32 32 31 30 27 24 18 12 6 1 7 14 20 25 29 33 37 42 47 55 64 72 78 86 92 93 93 95 96 97 96 91 86 80 72 66
35 31 30 29 29 29 28 26 22 16 10 2 5 11 17 23 28 33 38 42 47 54 63 70 76 84 88 89 90 91 91 92 93 91 87 82 74 65
37 31 29 28 27 28 27 27 24 20 14 7 3 8 15 21 27 33 38 43 47 54 62 67 73 80 84 85 84 86 85 87 90 90 87 83 75 66
40 34 29 27 26 26 26 26 25 21 16 11 6 7 13 20 27 34 40 43 47 52 61 66 70 76 82 84 82 80 81 82 84 86 86 83 78 70
40 38 32 27 25 24 24 24 24 22 18 13 10 9 13 20 27 34 40 44 47 53 59 64 67 72 78 82 80 77 77 77 79 81 84 83 78 70
40 39 35 28 24 22 21 21 21 20 18 15 12 11 14 20 27 34 40 45 48 53 59 62 66 70 74 78 78 73 72 73 72 75 80 80 77 71
39 38 36 32 26 21 19 18 18 18 16 14 13 12 15 20 26 33 39 43 48 54 58 61 64 69 72 74 75 73 71 70 67 68 72 74 73 70
38 37 35 33 28 22 18 16 16 15 15 14 13 13 16 20 25 31 37 41 45 51 56 60 63 68 70 72 73 73 72 69 65 63 64 66 66 66
36 36 35 34 30 24 19 14 12 12 12 12 12 13 16 20 24 29 34 38 42 48 53 57 62 67 70 71 71 70 69 68 64 62 60 61 63 62
35 34 34 34 31 27 20 14 10 8 8 9 10 12 15 19 23 27 31 35 39 44 50 54 59 65 69 70 69 68 66 64 62 61 59 59 58 58
34 33 33 33 32 29 23 16 10 5 4 6 9 11 14 18 22 26 29 33 36 40 45 50 55 62 67 70 70 69 68 64 63 63 62 60 58 56

GEFSNE_500_meanwind_036.txt.gz
Wind_Speed
61 58 56 54 52 50 46 42 34 24 19 22 22 23 29 43 58 73 83 91 100 108 116 124 130 132 130 127 124 120 115 109 103 98 94 88 81 73
59 56 54 52 51 48 45 41 35 27 18 19 22 23 26 36 50 65 76 84 92 100 108 117 124 130 130 129 126 122 117 112 106 100 96 91 85 77
57 54 53 51 50 47 44 41 36 30 21 17 21 22 25 32 43 57 69 76 83 92 100 109 117 125 130 130 128 125 120 115 109 103 98 94 89 81
54 52 51 49 48 46 43 40 36 31 24 17 19 21 23 28 38 51 62 70 75 83 92 101 110 118 126 129 129 126 122 117 112 106 101 96 92 86
53 50 48 47 46 45 43 39 35 31 26 19 17 20 21 25 34 46 56 63 68 74 83 93 102 111 119 126 129 128 124 119 113 108 104 100 95 90
52 49 47 45 44 44 42 39 35 31 27 21 17 17 19 22 30 41 51 58 63 67 75 84 93 102 111 120 126 127 125 121 117 112 107 102 98 93
52 48 45 43 42 42 41 38 34 30 26 22 18 16 17 20 27 37 46 54 58 62 68 76 84 94 104 113 121 126 125 122 118 113 109 104 100 95
52 47 44 42 41 40 40 38 35 31 27 23 18 15 15 17 25 34 43 50 54 58 62 68 76 85 95 105 115 121 124 123 120 116 111 107 102 98
52 48 43 41 39 38 38 37 35 31 27 23 18 15 13 15 23 32 41 47 51 55 57 61 69 76 86 97 107 117 122 122 120 117 113 109 105 100
52 48 43 40 38 37 36 36 34 32 28 23 18 14 12 14 22 31 39 45 49 51 54 55 62 69 79 89 100 110 117 121 120 118 114 110 106 102
51 49 44 39 37 36 35 34 33 32 28 23 17 13 10 13 20 29 37 43 47 49 51 52 56 62 72 82 92 103 111 117 119 118 115 112 108 103
50 48 45 39 36 34 34 33 32 30 27 23 17 11 8 12 20 28 36 41 45 47 49 50 52 57 64 75 85 96 105 112 116 117 116 113 109 105
49 47 44 40 35 33 33 33 32 30 27 23 17 10 6 10 18 27 34 39 42 45 47 48 50 53 60 69 80 90 99 107 111 114 115 113 110 106
48 46 44 40 35 32 32 32 31 30 27 23 16 10 4 9 17 25 32 37 41 43 45 46 47 51 57 65 75 84 93 101 107 110 113 113 110 106
47 46 44 41 36 32 30 30 30 29 27 23 16 9 2 8 15 23 30 35 39 41 43 44 46 49 55 63 72 80 88 95 103 107 110 111 109 105
46 45 44 42 38 33 30 29 29 28 27 23 17 10 2 6 13 21 28 33 37 39 41 43 45 48 53 61 70 77 84 90 97 103 106 108 108 103
44 44 43 42 39 35 30 27 27 27 26 23 18 11 4 5 11 17 25 31 35 38 40 41 43 47 53 61 68 75 81 86 91 96 101 105 106 102
43 42 42 40 38 35 30 26 25 24 24 22 18 12 6 7 11 16 22 28 32 35 37 38 40 47 54 61 68 73 78 82 87 91 97 101 102 100
41 41 40 39 38 35 31 25 23 22 22 20 17 12 8 8 12 16 21 26 30 33 35 36 38 44 52 60 67 72 76 79 82 87 92 97 98 96
40 40 39 38 36 35 31 26 22 20 19 18 15 11 8 9 12 16 21 25 29 33 35 35 38 44 52 59 65 71 75 76 77 81 87 91 94 93
38 38 37 36 35 34 31 27 21 18 16 15 14 11 8 9 13 17 20 24 29 33 34 34 38 44 52 58 63 69 74 75 75 76 82 88 91 91
35 36 36 35 34 32 30 27 22 17 14 13 11 9 8 9 12 16 19 24 30 33 33 35 39 44 49 55 61 67 71 73 73 75 77 83 88 89
33 34 34 34 33 31 29 26 23 17 13 11 9 8 7 9 12 15 18 24 30 31 32 36 39 41 47 54 60 65 68 70 72 73 75 78 80 81

GEFSNE_500_meanwind_042.txt.gz
Wind_Speed
77 76 75 74 73 72 70 68 66 61 53 51 53 54 53 47 40 33 28 29 40 57 70 80 89 97 102 107 116 124 130 130 128 123 117 111 107 100
75 74 72 72 70 69 67 65 63 61 55 50 51 51 50 47 41 35 28 27 36 52 68 79 88 97 102 107 115 124 130 130 128 124 119 114 109 103
73 72 70 70 68 67 65 63 61 59 55 50 49 48 47 45 41 36 30 26 32 46 64 77 87 95 102 107 113 123 129 130 129 125 120 115 111 106
71 70 68 68 66 65 63 61 59 57 54 50 48 46 45 44 41 36 31 27 28 41 58 73 84 93 102 108 113 121 128 130 130 126 122 117 113 109
69 68 67 66 64 63 61 60 57 54 53 51 47 45 43 42 39 35 31 27 26 36 52 69 81 90 100 106 112 119 127 129 129 127 123 119 114 110
67 66 65 64 63 61 59 58 55 52 51 50 48 44 42 40 38 33 29 27 25 31 45 62 76 87 97 105 110 117 124 129 130 128 125 120 115 111
65 64 63 63 61 60 59 58 55 51 50 49 47 45 42 40 37 33 28 25 24 28 39 55 69 81 92 101 106 113 120 126 129 128 126 121 117 112
63 62 61 61 60 58 57 57 54 51 50 49 48 45 42 40 37 32 27 23 22 26 34 48 62 73 86 97 103 108 116 124 128 128 127 123 118 113
62 61 59 59 58 56 55 54 51 49 48 48 47 45 42 39 35 30 26 22 20 24 30 41 54 65 78 90 98 104 112 120 126 128 127 124 119 115
60 59 58 56 56 55 53 52 50 47 45 45 44 42 40 37 33 28 23 19 18 21 27 36 47 57 71 83 93 99 107 116 123 127 127 125 120 116
57 57 56 55 54 53 52 51 48 44 43 42 42 41 38 35 31 25 20 17 16 19 25 34 42 51 62 74 85 93 100 110 119 125 127 126 122 117
54 54 54 53 53 52 51 51 47 43 40 40 39 38 36 32 27 22 17 14 14 18 25 34 40 47 54 66 77 86 94 104 115 122 126 126 123 119
52 52 51 51 51 50 49 49 47 42 40 39 38 36 33 29 24 19 14 11 12 18 25 33 39 45 51 59 70 79 87 97 109 119 124 126 124 120
50 50 49 49 49 48 47 47 45 40 38 37 37 35 31 27 22 16 11 8 11 18 26 33 38 44 49 53 62 71 80 90 103 114 121 124 124 121
49 48 48 47 47 46 45 45 42 39 36 35 35 33 29 24 19 14 9 6 11 19 26 33 38 43 48 52 56 65 73 83 96 108 118 123 124 122
47 47 46 46 45 45 44 44 41 37 35 34 33 31 27 22 17 11 6 5 11 19 26 32 37 42 47 50 54 60 68 76 89 102 113 120 123 123
45 45 44 44 43 43 43 42 39 35 33 32 31 29 25 20 15 10 4 4 12 19 25 31 36 41 45 48 51 56 62 71 82 95 108 117 122 122
42 42 42 42 41 40 40 39 37 33 30 29 29 27 23 18 13 8 3 4 12 19 24 29 34 38 42 45 49 52 58 65 76 88 102 113 119 121
40 40 40 39 39 38 38 37 35 31 28 27 26 25 22 17 12 8 3 3 11 17 22 27 32 36 39 42 46 50 55 62 70 82 95 107 115 118
38 38 38 37 37 36 35 35 33 30 27 25 24 23 20 16 11 7 3 3 9 15 20 24 29 33 37 40 44 48 54 59 66 76 88 100 109 115
36 36 36 35 35 34 34 33 32 29 26 23 22 21 18 15 10 6 3 4 8 13 17 21 26 30 34 37 41 46 51 57 63 71 82 94 104 111
34 34 34 33 33 33 32 31 30 28 25 22 20 18 17 13 9 5 6 6 7 11 14 18 23 26 30 34 38 44 50 57 63 70 79 89 98 106
32 32 32 32 32 31 30 30 29 27 24 20 18 16 14 11 8 6 6 6 7 9 12 15 19 22 26 31 36 42 49 56 63 69 76 84 92 99

GEFSNE_500_meanwind_048.txt.gz
Wind_Speed
62 63 65 66 68 70 70 71 71 71 72 73 76 76 77 78 76 74 69 64 60 57 56 54 50 47 45 50 58 65 71 74 77 84 95 109 124 133
62 64 65 68 69 69 70 71 72 73 73 72 73 73 74 74 73 71 67 62 57 55 53 51 48 44 43 48 58 66 73 76 78 83 92 105 120 131
62 64 66 68 68 69 70 70 71 73 74 73 72 71 70 70 69 67 64 60 56 53 51 49 46 42 41 47 58 67 74 78 80 82 89 102 118 130
62 64 66 67 68 68 69 69 70 72 74 74 70 69 68 67 66 63 60 58 56 53 51 49 45 40 39 47 59 68 75 81 82 83 88 100 116 129
62 64 65 66 66 67 68 68 69 71 72 72 69 67 65 64 62 59 56 55 54 52 50 47 43 39 37 46 59 70 77 83 85 85 89 99 115 128
62 63 64 65 65 66 66 67 68 69 70 70 68 65 63 62 60 57 54 53 52 51 48 45 41 37 34 43 58 71 80 86 87 87 90 99 114 127
61 62 63 63 64 65 65 65 67 68 68 68 66 64 63 61 59 56 54 52 49 49 47 43 40 35 33 40 57 72 82 87 89 89 91 100 114 126
60 61 62 62 63 64 64 64 65 66 66 65 64 63 61 59 57 54 53 51 48 46 46 40 38 33 31 37 55 71 84 89 91 91 92 100 112 124
59 60 60 61 62 62 62 62 62 62 63 62 62 60 59 57 55 52 51 49 47 44 43 38 35 31 29 34 52 71 84 90 92 93 93 100 111 122
58 59 59 60 60 61 60 59 59 59 58 58 59 57 56 54 52 51 50 47 44 42 40 35 32 29 27 32 49 69 84 91 92 94 95 101 110 121
57 58 58 59 59 60 59 58 57 56 55 55 56 55 53 52 51 50 48 45 41 38 37 33 28 25 23 29 45 66 83 92 93 94 95 101 109 120
56 57 57 58 58 58 57 56 55 54 52 53 52 51 50 48 48 48 46 43 39 35 33 29 25 21 19 26 42 63 80 90 92 94 95 100 109 119
55 55 56 57 56 56 55 54 53 52 51 51 50 49 47 46 45 44 42 39 36 32 29 25 21 17 16 24 39 60 77 87 91 93 95 100 108 118
54 54 55 55 54 53 52 51 50 49 49 49 48 47 44 44 42 41 39 36 33 29 25 21 17 13 13 21 37 56 73 84 88 91 94 100 108 117
52 53 53 53 52 50 49 48 48 47 46 46 45 44 42 41 40 37 35 32 29 26 22 17 13 9 9 19 35 52 67 79 84 88 93 100 108 116
50 51 51 50 49 48 47 46 45 44 44 43 42 41 39 39 37 34 32 28 26 22 18 14 10 6 7 17 31 48 62 73 79 85 91 99 108 117
48 48 48 47 47 45 44 43 43 42 42 41 40 38 36 36 34 31 29 25 22 19 15 12 8 4 5 15 28 43 57 68 76 82 89 97 107 115
45 46 45 45 44 42 41 41 41 40 39 38 37 35 33 32 30 28 25 22 19 16 12 9 6 2 5 13 24 37 51 64 74 80 87 95 105 113
43 43 42 41 40 39 38 38 38 37 37 36 35 32 30 29 27 24 21 19 16 13 10 7 3 1 4 11 21 33 46 59 71 79 85 94 103 111
39 39 39 38 37 36 35 35 35 35 34 34 32 29 27 26 24 21 18 16 14 11 8 5 2 2 5 11 18 28 41 54 66 76 84 91 100 109
36 36 35 35 34 33 33 33 33 33 32 31 30 27 24 23 21 18 15 14 12 9 6 3 2 4 7 11 18 26 37 49 61 72 82 89 97 107
32 32 32 32 31 31 31 31 31 30 30 30 27 24 22 21 18 16 13 12 10 7 4 3 3 5 9 12 17 25 34 45 57 67 77 87 95 105
29 29 29 29 29 29 29 29 29 28 28 28 26 23 20 18 16 13 11 9 8 5 3 2 4 7 10 13 17 24 32 41 52 62 71 81 91 100

GEFSNE_500_meanwind_054.txt.gz
Wind_Speed
67 68 68 67 67 65 65 65 64 63 62 62 64 65 66 67 68 68 69 70 71 72 74 75 77 79 80 82 83 83 84 84 85 86 87 87 88 90
70 70 69 69 67 65 66 65 65 64 63 62 64 65 67 68 69 70 70 71 72 73 75 76 78 79 80 80 80 80 80 79 79 79 79 79 80 81
71 71 69 68 66 65 65 65 65 65 65 63 64 65 67 69 70 71 71 71 72 73 74 76 77 78 78 78 77 76 75 74 73 72 72 72 73 73
70 69 67 65 63 64 64 65 65 66 66 64 64 66 68 69 70 70 71 71 72 72 73 74 75 75 74 74 73 72 70 69 68 68 67 67 67 67
66 64 63 62 62 63 64 64 65 66 66 65 65 67 68 69 70 70 70 70 71 71 71 71 71 71 70 69 68 67 67 66 65 64 63 63 63 62
62 61 61 61 61 62 63 63 64 65 65 65 66 66 66 67 69 69 69 69 69 69 69 69 68 68 66 65 65 64 63 62 61 60 60 58 58 58
60 59 60 60 60 62 62 62 64 64 65 65 65 65 65 66 67 68 68 68 67 66 67 66 67 66 63 61 61 60 60 59 58 57 55 53 53 54
58 58 58 59 59 61 62 63 64 64 63 64 64 63 64 65 66 67 67 67 65 62 65 64 64 62 60 59 58 57 56 55 54 52 50 49 49 52
58 58 57 58 59 60 61 62 62 61 61 62 62 62 63 63 65 64 64 64 62 60 63 61 59 58 57 56 55 54 53 51 50 47 46 46 48 55
57 57 57 57 58 58 59 60 60 59 60 61 61 61 61 61 62 62 62 61 59 57 59 60 56 55 54 53 53 52 50 48 46 43 42 43 49 58
56 56 56 57 57 58 58 58 57 57 59 59 59 58 58 58 59 59 59 59 56 53 55 57 54 53 51 50 49 49 47 44 42 39 38 42 53 61
55 55 55 55 56 56 56 55 54 55 56 56 56 56 55 55 55 55 56 56 54 50 50 53 52 52 49 45 45 45 43 40 36 34 36 43 57 64
54 53 53 54 54 54 53 52 52 52 53 53 52 52 51 51 51 50 51 52 51 49 48 49 48 48 47 43 41 42 40 35 31 30 35 46 59 67
52 52 53 53 52 51 50 50 50 50 50 50 49 49 48 48 47 47 48 47 48 47 45 46 45 45 44 41 39 37 35 30 26 27 36 48 61 68
51 51 51 50 49 48 47 47 47 48 47 47 47 46 46 45 44 44 44 44 43 42 43 43 42 41 41 40 36 33 29 24 22 26 37 50 63 68
50 50 48 47 46 45 44 44 45 45 44 44 44 43 43 42 42 42 41 40 38 38 40 40 39 38 38 36 33 30 25 19 19 27 39 53 64 68
49 47 45 43 42 41 41 41 42 42 41 41 41 41 40 40 39 40 39 37 36 35 36 36 36 35 34 32 29 25 20 15 17 28 42 54 64 67
45 43 41 40 39 38 38 38 38 38 39 39 39 39 38 37 37 37 37 34 33 33 33 32 31 31 30 28 25 20 15 12 18 32 46 57 64 66
40 38 36 35 35 34 35 35 35 36 36 36 36 36 35 35 35 34 34 32 31 31 31 30 28 28 26 24 21 17 10 10 20 35 48 57 63 66
35 33 32 32 32 32 32 33 33 33 34 34 34 33 33 33 32 32 31 30 28 28 28 27 26 25 24 20 17 13 7 10 23 36 49 59 63 67
32 30 30 30 30 30 29 30 31 31 31 31 31 31 31 31 30 30 29 27 26 25 25 25 24 23 21 17 13 9 4 12 25 38 51 59 63 67
30 29 29 29 28 27 27 28 28 29 29 29 29 29 29 28 28 28 26 25 24 24 23 22 21 19 17 13 9 5 4 14 27 40 52 59 63 69
28 28 28 27 26 25 25 26 26 27 27 27 28 27 27 27 27 26 24 23 22 21 21 19 17 15 13 9 6 1 6 16 27 40 52 59 65 71

GEFSNE_500_meanwind_060.txt.gz
Wind_Speed
71 73 73 73 74 73 73 73 72 70 67 65 65 65 67 67 67 66 64 63 62 62 61 62 63 64 65 66 67 68 69 69 70 71 71 72 73 75
69 70 70 71 73 73 72 72 72 71 67 64 65 66 66 66 66 65 64 63 63 63 63 63 64 65 67 68 69 70 71 71 72 73 74 74 75 76
68 69 69 70 71 71 71 71 71 70 67 64 65 65 65 65 64 65 64 63 63 63 64 65 66 67 68 70 71 72 73 73 74 75 75 76 77 78
69 69 69 70 69 69 69 69 69 68 67 64 64 64 64 64 64 64 63 63 63 64 65 66 67 68 69 71 72 73 73 74 75 76 77 78 79 80
69 69 68 68 67 67 67 67 67 67 66 65 63 63 62 62 63 63 63 63 64 65 66 67 68 69 70 71 72 73 74 75 76 77 78 79 80 81
69 68 67 66 66 66 66 65 65 65 64 63 62 61 61 62 63 62 63 64 65 66 66 67 68 69 70 71 73 73 74 75 76 77 78 79 81 82
68 67 66 65 65 65 64 63 63 63 62 62 62 62 61 62 63 63 63 64 64 65 66 67 68 68 69 70 71 72 73 75 76 77 78 79 80 81
65 64 63 63 63 63 62 61 61 61 61 61 61 60 60 62 63 64 64 65 64 64 66 66 67 67 68 69 70 71 73 74 75 76 77 77 78 80
61 60 60 59 60 59 59 60 60 60 60 60 60 59 60 61 62 63 64 64 63 64 65 65 66 66 67 67 68 69 71 72 73 74 74 75 75 76
57 56 55 55 56 57 57 58 58 59 60 60 59 59 60 61 62 63 64 64 63 63 65 64 64 65 65 65 65 66 68 69 70 71 71 71 72 73
52 51 52 52 53 54 54 55 55 56 57 58 59 59 59 60 61 62 63 63 61 60 62 63 62 63 62 61 61 62 64 66 67 67 67 68 69 71
48 48 49 50 51 52 52 52 52 53 55 55 56 56 57 57 59 60 60 60 59 58 58 60 60 62 60 57 56 57 59 61 63 64 65 66 67 68
45 46 46 47 48 49 50 50 51 52 53 53 53 53 53 54 55 56 57 57 56 55 56 58 58 59 60 56 51 53 55 57 59 61 63 64 64 65
42 43 44 45 46 47 47 48 49 50 50 50 50 50 50 51 52 53 53 54 54 53 54 56 57 57 57 54 50 49 51 54 57 59 60 60 60 60
41 42 43 43 44 44 45 45 46 46 45 45 44 45 47 48 49 50 51 51 50 50 52 54 55 55 54 52 49 48 49 50 54 56 56 56 54 52
41 41 42 42 42 42 43 43 43 42 42 41 42 43 44 45 46 47 47 47 47 47 49 51 52 52 50 49 49 47 48 49 50 52 52 49 45 43
41 40 41 41 41 41 42 41 40 40 39 40 41 41 42 43 44 44 44 45 45 44 44 46 48 48 48 47 46 46 47 48 47 46 45 41 38 37
38 38 38 38 38 38 38 38 38 38 39 39 40 40 41 41 41 41 42 43 42 41 42 43 44 44 43 43 45 46 46 46 43 41 39 36 32 28
35 35 35 35 35 35 35 35 36 37 37 38 38 38 38 38 38 39 40 40 39 39 39 41 42 42 40 37 38 43 44 41 38 35 33 30 25 22
34 34 34 34 34 33 33 34 35 35 36 36 36 36 36 36 36 37 37 37 37 37 37 38 39 39 37 36 35 36 40 37 33 29 27 24 20 18
33 33 33 32 32 32 32 32 33 33 33 33 33 33 33 33 34 34 34 35 35 35 35 34 35 36 35 34 32 32 33 32 28 25 22 19 16 16
30 30 30 30 30 30 30 31 31 31 31 31 31 31 31 31 31 32 32 32 32 32 31 30 31 31 31 31 30 29 28 26 24 21 18 15 15 16
29 29 28 28 29 29 29 29 29 29 29 29 28 28 28 29 29 29 29 29 28 27 27 27 27 28 28 29 28 26 23 20 18 15 12 13 15 19

GEFSNE_500_meanwind_066.txt.gz
Wind_Speed
78 79 79 80 81 81 82 82 83 81 77 75 76 76 77 78 78 78 76 76 75 75 74 72 71 71 70 69 67 66 66 66 65 66 66 65 65 65
82 82 83 83 84 84 84 84 85 84 81 76 77 78 79 78 78 78 76 76 75 74 74 73 72 71 70 69 68 68 67 67 66 66 66 67 67 67
86 86 86 86 87 86 86 86 85 85 83 78 78 78 79 77 76 76 75 74 73 73 73 72 71 71 70 70 70 70 69 68 67 67 67 68 68 68
87 88 87 87 87 86 85 84 83 83 82 78 76 76 77 76 75 74 73 73 72 71 70 70 70 70 70 70 69 69 69 68 67 67 68 68 69 70
87 86 84 84 82 81 81 80 79 78 78 75 72 72 72 72 72 71 71 70 69 68 68 68 69 69 68 68 67 67 68 68 68 68 68 69 70 70
83 81 79 78 76 76 75 74 73 72 71 70 68 68 68 68 68 67 67 67 66 66 66 66 66 66 65 66 66 67 67 67 68 69 69 69 70 71
75 73 71 71 70 69 68 67 67 66 65 64 62 62 62 63 63 64 65 65 64 64 63 63 64 64 65 66 66 66 67 67 68 69 69 70 71 72
65 64 63 62 62 62 61 61 60 59 58 58 57 57 57 58 59 60 61 62 62 62 63 63 64 64 64 65 65 66 66 67 67 68 69 71 72 72
58 57 57 56 56 55 55 54 54 53 53 53 52 51 52 54 56 56 57 58 58 60 61 61 62 62 62 62 63 64 65 65 66 67 69 70 71 72
53 52 51 49 49 49 49 48 48 48 48 48 48 47 48 50 52 53 55 55 56 57 58 58 58 59 60 61 62 63 63 64 65 67 68 69 71 72
47 47 46 44 44 44 43 43 43 43 44 45 45 45 45 47 48 50 51 52 52 53 54 54 55 58 59 59 60 61 62 63 64 66 67 69 70 72
43 43 42 41 41 40 40 39 39 40 41 42 43 44 44 44 46 47 48 50 50 51 52 53 54 56 56 56 57 59 60 61 63 64 65 67 68 70
40 39 39 39 39 38 38 38 38 38 39 40 41 42 43 43 44 45 46 47 47 48 49 51 51 53 53 53 54 55 57 59 60 62 63 65 67 69
39 38 38 38 38 37 37 37 37 37 37 38 39 39 40 41 42 43 44 44 45 46 47 48 49 51 52 52 52 53 55 57 59 60 61 63 64 66
39 38 37 37 36 36 35 35 36 36 36 36 37 38 39 40 41 42 42 43 45 45 46 48 49 50 51 52 52 52 53 54 56 58 59 60 61 62
38 37 36 35 34 34 34 34 35 35 36 36 36 37 38 39 40 40 41 42 43 44 46 47 49 50 50 51 50 49 50 51 52 54 56 56 57 58
35 34 33 32 32 33 33 33 34 34 35 36 36 36 37 38 39 40 41 42 42 43 44 46 47 48 48 48 47 47 48 49 50 51 53 53 52 54
34 32 31 31 31 31 32 33 33 34 34 35 35 36 36 37 38 39 40 40 41 41 42 44 45 46 46 46 46 46 46 46 47 49 50 50 48 49
32 31 31 31 31 31 32 32 32 33 34 34 34 35 35 36 36 37 38 38 39 39 40 42 43 45 44 43 41 44 45 45 46 46 47 48 45 42
32 31 31 30 30 30 31 31 31 32 32 32 32 33 33 34 35 36 36 37 37 38 38 40 42 43 43 41 38 38 42 43 43 43 44 43 40 38
31 30 30 30 30 30 30 30 30 30 30 31 31 32 32 32 33 34 35 35 36 36 35 36 38 39 39 37 35 33 36 40 41 40 39 37 34 33
30 30 30 30 29 29 29 28 28 28 29 30 30 30 30 31 31 32 32 32 32 32 33 33 35 36 37 36 34 33 34 37 39 38 37 35 33 30
29 29 29 29 28 28 27 27 26 27 27 27 27 28 28 29 29 29 29 30 30 31 32 32 33 35 36 36 35 34 34 35 35 35 34 33 30 27

GEFSNE_500_meanwind_072.txt.gz
Wind_Speed
84 86 88 89 91 92 94 95 96 97 95 92 93 94 94 93 91 91 91 91 90 89 87 85 84 83 82 80 79 78 77 75 74 73 72 70 69 69
88 89 91 92 93 94 95 95 95 96 96 90 90 91 92 92 90 89 89 89 89 88 87 86 85 84 83 82 81 80 79 77 76 75 74 72 71 71
91 92 93 93 93 93 92 90 89 88 88 82 80 82 84 84 84 84 83 83 83 83 83 83 83 83 82 82 81 80 80 79 77 77 75 74 73 72
92 93 92 91 89 86 84 82 80 79 78 75 70 72 73 74 74 75 75 75 76 76 76 77 78 79 79 79 79 79 79 78 77 76 75 75 74 73
92 91 87 84 80 77 75 73 71 69 69 67 62 62 63 64 65 65 66 67 68 69 69 70 71 73 74 75 76 76 76 76 75 75 75 74 73 72
87 83 78 74 70 68 66 64 63 63 62 60 57 56 56 57 58 58 59 60 61 62 63 64 64 65 67 69 70 71 72 73 73 73 73 72 72 71
76 71 67 64 62 61 59 58 58 57 56 55 53 52 51 51 52 53 54 55 55 56 57 58 59 60 61 62 63 65 66 68 68 69 69 69 69 69
66 62 59 57 56 55 54 54 53 53 52 51 49 48 46 46 47 48 48 50 50 50 51 52 53 54 56 57 59 61 62 64 65 65 65 65 66 66
59 56 54 53 52 51 50 50 49 49 48 48 46 44 43 42 43 43 44 45 45 46 46 46 47 48 50 52 54 56 57 59 61 62 63 64 65 65
54 52 50 49 48 48 47 46 45 45 45 45 44 42 41 40 40 40 40 41 41 41 42 42 43 44 46 48 49 51 53 55 57 59 60 61 62 62
50 49 48 46 46 46 45 44 42 41 42 42 42 41 40 39 38 38 38 38 38 38 39 40 41 42 43 44 46 49 51 52 54 55 56 57 58 60
47 46 45 44 43 43 43 42 41 40 40 40 39 39 38 37 37 37 37 37 37 37 37 39 40 42 42 43 44 46 48 49 51 52 54 56 57 59
45 43 42 42 41 41 41 40 40 39 38 37 37 36 36 36 36 36 36 35 36 36 36 38 39 40 41 42 43 45 46 48 49 51 52 54 57 58
43 41 40 40 40 39 39 39 38 37 36 36 35 35 35 35 35 35 34 34 34 35 36 37 38 39 40 41 42 43 45 47 49 50 52 53 55 56
41 40 40 39 38 37 37 37 36 35 35 34 34 34 34 33 33 33 33 33 33 34 35 36 38 39 40 40 41 43 44 46 48 50 52 53 54 55
40 39 39 38 37 36 35 35 35 34 33 33 32 32 32 32 32 33 33 33 34 35 36 37 38 39 40 41 42 43 44 46 48 50 52 53 54 55
37 36 35 35 34 34 34 33 33 33 32 31 31 31 30 31 31 32 32 33 34 35 36 37 39 40 41 41 42 43 44 46 47 49 50 51 52 53
35 34 33 33 33 32 32 32 32 31 31 30 30 29 29 30 30 31 32 33 34 35 36 37 38 39 40 40 41 43 44 45 46 48 50 50 50 51
33 33 32 32 32 32 31 31 31 30 30 29 29 29 29 29 30 30 31 32 33 34 35 36 37 38 39 39 39 41 42 44 45 46 47 48 47 48
32 32 31 31 31 31 30 30 29 29 28 28 28 28 28 29 29 30 30 31 32 33 34 35 36 37 37 37 37 37 40 42 43 44 44 45 44 45
31 31 31 31 30 29 29 28 27 27 27 27 27 27 27 27 27 28 28 29 30 31 32 32 34 35 35 35 34 34 36 39 41 41 42 42 41 42
31 31 31 30 29 28 28 27 26 26 26 26 26 26 26 26 26 27 27 28 29 29 30 31 32 33 34 34 33 33 34 37 39 40 40 40 41 41
30 30 30 29 28 27 26 25 25 25 25 25 25 25 25 26 27 27 28 28 29 29 30 30 31 32 33 33 33 33 34 36 37 39 39 40 41 40

GEFSNE_500_meanwind_078.txt.gz
Wind_Speed
73 75 77 79 81 84 86 88 91 92 90 88 89 90 92 92 91 90 90 88 86 84 83 82 83 84 85 87 89 89 90 90 89 88 87 85 82 79
76 78 80 83 85 87 89 91 93 96 96 91 90 89 88 86 82 80 78 78 77 75 74 74 74 75 76 78 79 82 83 85 86 87 86 85 83 81
79 82 84 86 88 89 91 92 92 92 93 88 84 81 78 75 72 69 68 67 67 67 66 67 67 68 68 69 70 73 75 77 80 82 83 83 82 80
83 85 87 89 90 90 90 89 88 85 84 81 74 69 66 64 62 61 59 58 58 58 58 58 59 60 61 61 62 63 66 69 71 74 78 79 79 79
86 87 89 90 89 88 86 84 80 77 74 71 64 60 58 56 55 54 53 52 52 52 52 52 53 54 54 55 55 57 58 60 63 66 70 74 76 76
87 88 88 88 86 83 79 75 71 68 65 62 58 54 52 51 51 50 49 49 49 50 49 49 49 49 49 49 50 51 52 54 56 59 62 65 70 73
87 86 85 82 79 76 71 67 63 60 58 56 53 51 48 47 47 48 47 46 45 46 46 46 46 45 45 46 46 46 47 48 50 53 55 58 61 65
85 83 80 76 71 67 63 60 57 55 53 52 50 48 46 45 45 45 44 43 42 41 43 42 42 42 42 42 42 42 43 44 46 48 51 53 56 59
82 78 74 68 64 60 56 53 51 50 50 49 47 45 44 43 43 43 42 41 40 39 40 38 38 38 38 38 38 39 39 40 41 43 46 49 51 54
77 72 66 60 56 53 50 48 47 46 45 45 44 43 42 42 42 42 41 40 38 38 39 37 36 36 36 35 36 36 36 37 39 39 41 44 47 50
69 63 59 54 51 49 47 45 43 42 42 42 41 41 40 40 41 41 41 40 38 36 36 36 35 35 34 33 34 34 34 34 35 36 38 40 42 45
61 55 52 49 47 45 45 43 41 40 40 39 38 38 38 38 39 39 39 39 37 34 33 34 33 34 32 32 32 32 32 32 33 33 35 36 38 41
54 49 46 45 43 42 42 41 41 39 38 36 36 36 36 36 36 36 37 37 35 33 32 32 31 32 32 30 31 31 31 32 32 33 34 35 36 39
49 46 44 42 41 40 40 39 38 37 36 35 35 34 35 35 34 34 34 34 33 32 31 31 30 31 31 30 29 30 31 31 32 32 33 34 36 38
46 43 42 40 39 38 38 37 36 36 36 35 35 34 35 34 33 32 32 32 31 31 31 30 30 30 30 29 29 30 30 30 31 32 33 34 35 37
42 40 39 38 38 37 36 35 35 35 35 35 34 34 34 33 32 31 30 30 29 30 30 29 29 29 29 30 30 30 30 31 31 32 33 34 35 36
39 37 37 36 35 35 35 34 34 34 34 34 34 33 32 31 30 30 29 29 29 29 29 30 30 30 30 30 30 31 31 32 33 34 34 35 36 37
38 37 36 35 34 33 33 33 32 32 32 32 32 32 31 30 30 30 30 29 29 29 29 29 30 30 30 30 31 31 32 32 34 35 36 36 37 38
37 36 35 34 33 33 32 32 31 31 31 31 30 30 29 29 29 29 29 29 28 28 28 28 29 29 29 29 30 31 32 33 34 35 36 36 37 38
36 36 34 33 32 32 31 31 30 30 30 29 28 28 28 28 28 27 27 27 27 27 27 27 28 28 29 28 28 29 31 32 33 34 35 36 36 37
35 34 33 32 31 31 30 29 29 28 28 27 27 27 27 27 26 26 26 26 26 26 26 26 27 28 28 28 27 28 30 31 32 32 34 35 36 37
33 32 31 30 30 29 29 28 28 27 27 27 26 26 26 26 25 25 25 25 25 26 26 26 27 28 28 28 28 28 30 31 32 32 33 34 35 35
31 30 29 28 28 28 27 27 27 26 26 26 26 25 25 25 25 26 26 26 26 26 27 28 28 29 29 29 29 29 30 32 33 33 33 35 35 35

GEFSNE_500_meanwind_084.txt.gz
Wind_Speed
62 64 65 67 69 72 74 77 79 79 77 77 80 82 85 87 88 89 90 90 90 90 90 89 89 88 88 87 87 87 87 87 87 87 88 88 89 89
64 65 67 69 72 73 76 78 80 83 83 81 84 86 89 90 90 90 89 88 86 85 84 83 81 80 79 78 77 77 77 78 78 79 79 80 82 84
66 68 70 72 73 75 78 80 82 85 87 85 86 88 89 89 88 87 84 82 79 76 74 72 69 67 66 65 65 64 65 66 67 68 69 70 72 75
68 70 72 74 75 78 80 82 84 86 89 88 86 86 85 84 82 80 76 73 69 66 63 60 58 56 55 55 54 55 55 56 57 59 60 62 64 66
71 72 74 76 78 80 82 84 85 87 88 88 85 82 79 76 73 70 67 64 60 57 54 52 51 50 50 50 50 50 50 51 52 53 54 55 56 58
73 74 76 79 80 82 83 85 86 86 85 83 80 75 70 67 64 61 58 56 53 51 49 48 48 47 46 46 46 46 47 47 47 48 49 50 51 52
75 77 79 80 82 84 85 85 84 83 80 77 72 66 61 58 56 54 51 49 47 46 46 45 45 44 43 43 43 43 43 43 43 44 45 46 47 48
78 79 81 82 83 84 84 83 81 78 74 69 64 59 55 52 50 48 46 44 42 42 42 41 41 41 41 41 41 40 40 40 41 41 42 43 44 45
80 82 83 83 83 82 81 79 75 71 67 62 57 53 50 47 45 43 42 41 39 38 38 37 38 39 40 40 40 39 38 38 39 39 39 40 41 42
82 83 83 82 82 80 77 73 68 63 59 56 52 48 46 43 42 41 39 38 35 35 35 34 35 36 38 39 39 38 37 37 37 36 37 37 37 38
83 83 82 81 78 76 72 66 60 55 52 49 47 44 42 41 40 38 37 35 33 32 33 34 33 34 35 36 37 36 35 35 34 34 34 35 35 35
82 80 79 77 73 68 63 58 52 48 45 43 41 40 39 38 37 36 35 34 33 31 31 32 32 32 31 33 34 33 33 32 32 32 32 32 32 32
80 77 73 69 64 59 55 50 46 43 41 39 38 36 36 35 35 34 34 34 33 31 31 31 30 30 30 29 30 30 30 29 29 29 29 30 30 30
76 71 66 60 56 51 47 44 42 40 39 37 35 34 33 32 32 32 32 32 32 31 30 29 28 28 27 27 27 28 28 28 27 27 28 28 29 29
69 64 58 52 48 44 42 41 39 38 37 36 34 32 32 31 31 30 30 30 30 29 28 28 27 26 25 25 25 26 26 26 27 27 27 27 28 29
61 55 50 45 42 40 39 38 38 37 36 34 32 31 30 30 29 29 28 28 27 27 27 27 26 25 24 24 24 24 25 26 26 26 26 27 27 28
53 47 42 39 37 37 37 36 36 35 33 32 31 30 29 28 28 27 27 26 26 26 26 25 25 25 24 24 23 24 24 25 25 26 26 26 27 28
46 41 38 36 35 34 34 34 34 32 31 30 29 28 27 27 27 26 26 25 25 25 25 24 24 24 23 23 24 23 23 24 24 25 26 26 28 28
40 37 36 35 34 33 33 32 31 30 29 28 27 27 27 26 26 25 25 25 24 24 24 23 23 23 23 23 23 23 23 24 24 24 25 26 28 29
37 35 34 34 33 32 31 30 28 27 27 27 26 26 26 25 25 25 25 25 24 24 23 23 23 22 22 23 23 23 24 24 24 24 25 26 27 28
34 34 33 33 32 30 29 27 26 25 25 25 25 25 25 24 24 24 24 24 24 23 23 24 23 23 22 22 23 24 24 24 24 24 25 25 26 28
33 32 32 31 30 28 27 26 25 24 24 24 24 24 24 24 23 23 23 23 24 23 23 24 24 24 24 24 24 25 25 25 25 24 25 26 27 27
31 30 29 28 27 26 25 24 24 23 24 24 24 24 24 24 23 23 23 23 23 23 24 24 24 25 24 24 25 25 26 26 26 26 26 27 28 28

GEFSNE_500_meanwind_090.txt.gz
Wind_Speed
57 58 59 60 61 63 64 66 67 67 66 66 68 69 70 71 72 73 74 76 77 78 79 80 81 82 83 84 84 85 84 84 83 83 83 83 84 84
58 59 60 61 63 64 66 67 69 70 70 70 71 73 74 75 76 77 78 79 80 81 82 82 83 83 83 83 83 82 81 80 80 80 80 80 80 81
59 60 61 63 64 66 67 69 70 72 72 71 73 75 77 79 81 82 83 84 84 83 83 82 81 80 79 77 76 74 73 72 72 72 71 72 72 73
61 62 63 65 66 67 69 70 72 74 76 76 76 78 80 82 83 84 85 85 84 83 81 79 77 74 71 68 66 65 64 63 62 61 61 61 62 63
62 63 65 67 68 70 71 73 75 78 80 81 81 82 83 83 84 84 84 83 81 79 76 73 69 66 63 60 58 57 56 54 53 52 52 52 53 54
64 66 68 70 72 73 75 77 80 82 83 84 84 83 83 82 82 81 79 77 74 72 68 64 61 58 55 53 51 50 48 48 47 47 47 47 47 48
67 69 71 73 75 78 80 82 84 85 86 86 85 83 80 79 77 76 73 69 65 62 58 55 52 50 48 46 45 44 43 42 42 42 42 42 42 42
71 73 75 77 80 82 84 85 87 87 86 85 83 80 76 74 71 68 64 59 54 51 49 46 45 43 42 42 40 39 38 37 37 38 38 38 39 39
75 77 79 81 83 84 85 85 85 84 83 82 79 74 70 66 63 58 54 50 45 42 41 38 38 38 38 38 37 35 34 34 34 34 35 35 36 36
78 81 82 82 83 85 84 83 81 79 77 75 71 66 61 57 54 50 46 42 38 36 36 33 33 33 34 34 34 33 32 31 31 31 32 34 34 35
81 82 82 83 83 83 82 80 76 72 69 65 61 57 53 49 46 43 39 37 33 32 32 30 29 30 30 31 32 32 30 30 30 30 31 32 33 34
81 81 82 82 81 80 78 74 70 65 60 54 50 47 44 41 39 38 36 34 31 29 29 29 28 28 27 28 30 31 29 28 28 28 29 29 30 31
81 81 79 78 76 73 70 66 62 57 51 46 42 40 37 35 34 34 33 32 30 28 27 27 26 26 26 26 28 29 28 27 26 26 26 27 27 27
81 78 75 73 69 65 62 58 54 49 44 40 37 35 33 32 31 31 30 30 29 27 26 26 25 25 25 25 26 27 27 25 25 25 25 25 25 24
77 74 70 66 62 58 55 51 47 43 39 37 34 32 31 30 29 29 29 28 28 27 26 25 24 24 24 24 24 24 23 23 23 22 22 22 22 22
72 68 63 59 56 52 48 44 41 38 36 33 32 30 29 29 28 27 27 26 25 25 24 24 23 23 22 22 22 22 22 21 21 20 20 20 20 20
67 62 57 53 49 45 42 38 36 34 33 31 30 28 27 26 26 25 24 24 23 23 23 23 22 21 21 21 21 21 20 20 19 19 19 19 19 19
61 56 51 48 44 40 36 34 32 32 30 29 28 27 25 24 23 23 22 22 22 21 21 21 20 20 20 20 20 20 20 19 19 19 19 19 18 18
55 50 46 43 39 36 33 31 30 29 28 28 26 25 24 23 22 22 21 21 21 20 20 20 19 19 19 20 20 19 19 19 19 19 18 18 18 18
50 46 43 39 36 33 31 29 28 27 27 26 25 23 22 22 21 21 21 21 20 20 19 19 19 19 19 19 19 19 18 18 19 18 18 18 18 18
45 42 39 36 33 31 30 28 27 26 25 24 23 22 21 21 21 21 21 20 20 20 20 19 19 19 19 19 19 19 18 18 18 19 19 18 18 18
41 38 35 33 31 30 28 26 26 25 24 23 22 22 21 21 20 20 20 20 20 20 20 20 19 19 18 18 19 19 19 19 19 19 19 19 19 19
37 35 32 30 29 27 26 25 24 24 23 22 22 21 21 21 20 20 20 20 20 20 20 19 19 19 19 18 18 19 19 19 19 19 19 20 20 21

GEFSNE_500_meanwind_096.txt.gz
Wind_Speed
51 52 53 53 54 55 56 57 58 58 58 59 62 63 64 65 67 68 69 70 71 72 73 74 75 76 76 77 77 78 78 78 79 79 78 78 78 78
52 53 53 54 55 56 58 60 61 63 63 64 66 68 70 71 72 73 75 75 76 77 78 79 80 80 80 81 81 81 81 81 80 80 79 79 79 79
53 54 55 56 57 59 61 63 65 67 68 68 71 73 75 77 78 79 81 82 82 82 83 83 83 83 83 83 83 82 82 81 80 80 79 79 79 79
55 55 56 58 60 62 65 67 69 71 73 74 74 77 79 81 82 83 84 85 85 85 85 84 84 83 82 82 81 80 78 77 76 76 76 75 75 76
56 58 59 62 64 66 69 71 73 75 77 78 78 79 81 82 83 83 84 84 83 83 82 82 81 80 78 76 74 72 71 70 69 68 68 68 69 70
59 61 63 66 68 71 73 75 77 78 80 81 81 81 81 82 82 82 81 79 78 77 76 75 74 72 69 67 65 63 62 61 60 60 59 60 60 60
62 64 67 69 72 74 76 78 79 80 81 83 83 82 80 79 78 77 75 72 70 69 67 65 63 61 58 56 55 54 53 52 51 50 50 50 50 51
65 68 70 73 75 77 78 79 81 82 83 83 81 79 77 75 73 71 69 66 62 58 57 53 52 50 48 47 46 45 44 42 42 41 41 41 42 43
69 71 74 75 77 79 79 79 80 81 81 80 77 74 71 68 67 65 62 59 53 49 47 44 43 41 40 39 38 36 35 34 34 34 34 35 35 36
72 74 76 77 78 79 79 79 78 77 75 73 71 68 66 64 62 59 54 49 44 41 40 37 35 35 34 32 31 30 29 28 27 27 28 29 30 31
74 76 77 78 79 80 79 78 75 72 69 67 65 63 61 58 55 51 46 42 37 35 34 32 30 29 27 27 27 26 25 24 23 24 25 26 27 28
76 77 78 78 78 78 77 74 70 67 65 62 61 58 54 51 47 43 40 37 34 31 30 28 26 25 23 24 24 24 23 22 22 22 23 24 25 26
77 78 78 77 76 74 72 69 66 64 61 59 55 51 47 43 40 37 35 33 30 27 26 25 24 23 22 22 23 22 21 20 20 21 21 22 22 23
79 78 76 74 72 70 68 65 63 60 57 53 49 44 40 36 34 32 31 29 27 25 24 23 22 21 21 20 21 21 20 20 19 19 19 19 20 20
78 76 74 71 69 66 63 60 58 55 51 47 42 37 34 32 30 29 28 26 24 23 22 20 20 19 19 18 19 19 19 18 18 18 18 18 18 18
76 73 71 68 65 61 57 54 52 49 45 41 36 33 31 30 29 27 25 23 22 21 19 18 17 17 17 17 17 17 17 17 16 16 16 16 16 16
74 71 67 63 59 55 52 49 46 42 39 35 32 30 29 28 26 24 22 21 20 19 18 17 16 15 15 15 15 15 15 14 14 13 13 14 14 14
70 66 62 58 53 50 46 43 40 37 34 32 30 28 27 25 23 22 20 19 18 17 16 16 15 14 14 14 14 13 13 13 13 13 13 13 13 13
66 61 57 52 48 45 42 38 36 34 32 30 28 26 24 23 21 20 19 18 17 16 15 15 14 14 14 14 13 12 12 12 12 12 12 12 12 12
60 56 51 47 43 40 38 35 33 32 30 28 26 24 22 20 19 18 18 17 16 15 15 14 14 13 13 13 13 13 13 13 13 13 12 12 12 12
54 50 45 41 39 36 34 33 31 29 27 25 23 22 20 19 18 17 17 16 15 15 14 14 14 13 13 13 13 13 13 13 13 13 13 12 12 12
47 43 39 37 35 33 31 30 28 26 24 23 21 20 19 18 17 17 16 15 15 14 14 13 13 13 13 13 13 13 13 13 13 13 13 13 12 11
41 38 35 34 32 30 29 27 26 24 22 21 20 18 17 17 16 16 15 15 14 14 14 13 13 13 13 13 13 12 12 13 13 13 13 13 13 12

GEFSNE_500_meanwind_102.txt.gz
Wind_Speed
48 48 49 49 49 50 50 50 50 50 50 52 55 57 59 61 63 65 67 69 71 72 74 75 76 77 78 79 80 81 81 82 82 82 82 81 80 80
49 49 49 50 50 50 51 52 54 55 55 56 59 62 64 66 69 71 72 74 76 77 78 80 80 81 81 82 82 82 83 84 84 85 85 85 84 83
49 50 50 51 51 52 54 55 57 59 60 61 64 67 69 71 73 75 76 77 78 79 80 80 80 80 80 80 80 81 81 81 81 81 81 82 83 84
50 51 51 52 53 55 57 59 61 63 65 66 68 71 73 74 76 77 78 79 79 78 77 76 75 75 75 75 74 74 74 75 76 76 77 78 78 79
51 52 53 55 56 58 60 63 65 67 70 72 72 73 74 76 77 77 77 76 74 73 72 71 70 69 68 67 67 67 67 67 67 68 69 70 71 72
53 54 56 58 59 62 64 66 69 70 73 74 75 74 75 76 77 76 73 70 68 68 67 65 64 63 63 62 62 61 60 59 58 57 57 58 59 61
55 57 59 61 63 65 68 69 71 73 75 76 76 75 75 75 74 71 68 66 64 64 62 60 59 58 58 56 54 52 50 48 46 46 45 45 46 48
58 60 62 64 66 68 69 71 74 76 77 77 76 75 74 71 69 67 66 64 61 59 58 55 55 52 50 48 45 42 40 38 37 36 36 36 37 38
61 63 65 67 68 70 71 73 75 77 77 77 76 73 70 67 67 65 63 60 57 54 53 50 47 45 42 39 37 35 34 32 30 29 28 29 30 31
64 66 67 69 70 72 73 74 75 75 75 75 73 69 67 65 64 62 59 56 52 50 48 43 40 37 34 33 32 30 28 26 25 24 23 24 24 25
67 68 69 71 72 74 75 75 74 73 73 71 69 66 64 62 60 58 54 51 46 42 40 38 34 31 30 29 28 25 23 22 21 20 20 19 19 20
68 69 71 73 73 74 75 75 74 72 70 67 64 62 59 56 54 51 48 44 40 36 34 33 31 29 26 25 24 22 21 19 19 18 17 17 17 17
69 70 71 73 73 74 74 74 72 70 66 63 59 57 54 51 48 45 42 39 36 33 32 30 28 27 24 20 21 20 18 17 16 15 15 16 16 17
70 70 71 72 72 73 72 71 69 66 63 59 56 52 49 45 42 40 37 35 33 31 30 28 25 23 20 18 18 18 16 15 14 14 14 15 15 15
70 70 71 71 71 70 68 67 65 62 59 55 51 47 44 40 37 35 33 32 30 29 27 25 22 19 18 16 15 14 14 13 12 12 12 12 12 13
71 71 72 71 70 68 65 63 60 57 53 49 45 41 38 36 34 32 31 29 27 26 24 22 19 17 16 15 14 13 12 11 11 11 11 11 11 11
72 72 71 69 67 65 62 58 54 50 46 43 39 36 34 33 31 30 28 26 24 23 21 19 17 16 14 13 12 11 11 10 10 9 9 10 10 10
72 70 68 66 64 61 57 52 48 44 40 37 35 33 31 29 28 26 24 23 21 19 17 16 16 14 13 12 11 10 10 9 8 8 7 8 8 8
69 67 65 63 60 55 51 46 43 39 36 34 32 30 28 26 24 23 22 20 18 16 15 15 14 13 12 11 10 10 9 8 8 7 7 7 7 7
65 63 61 58 54 50 46 42 39 36 33 31 29 27 25 23 22 20 19 17 16 15 14 13 12 12 11 10 10 9 9 8 7 7 7 6 6 6
61 59 56 52 49 46 42 38 35 32 29 28 26 24 22 21 20 19 17 15 14 13 13 12 11 11 10 9 9 8 8 7 7 7 7 7 7 7
56 53 50 47 44 41 37 34 30 28 26 25 23 21 20 19 18 16 15 14 13 13 12 11 10 10 9 9 8 8 7 7 7 7 7 6 6 6
51 48 45 43 40 36 33 29 26 25 24 22 21 19 18 17 16 14 14 13 13 12 11 11 10 9 9 9 8 8 7 7 6 6 6 6 6 6

GEFSNE_500_meanwind_108.txt.gz
Wind_Speed
46 47 47 48 48 49 49 50 49 48 47 48 50 52 54 56 58 60 62 64 66 68 70 72 73 74 75 76 77 78 79 79 80 80 81 81 81 81
47 48 48 49 50 50 51 51 52 52 51 52 55 57 59 61 63 65 67 68 70 72 73 73 74 75 76 77 78 78 78 79 79 79 79 80 81 82
47 48 49 50 51 52 52 53 54 55 56 56 59 61 63 65 67 69 70 72 73 73 73 73 74 75 76 75 75 74 74 74 75 75 75 76 77 78
48 49 50 51 52 53 54 55 57 59 61 61 62 64 66 68 69 70 72 72 72 72 73 74 74 73 72 71 70 70 69 68 68 68 68 68 69 70
49 51 52 53 54 55 57 58 60 62 64 65 66 67 69 70 71 72 72 72 72 72 73 72 71 70 69 68 67 65 64 63 63 62 62 61 62 62
51 52 53 55 56 58 59 61 63 65 66 68 69 69 70 71 72 72 71 71 71 72 72 70 69 67 65 64 63 61 60 58 57 56 55 54 54 53
52 53 55 57 58 60 63 64 66 67 68 70 70 70 70 72 72 72 71 70 70 70 69 67 65 63 61 59 58 56 55 53 50 48 47 45 44 44
53 55 57 59 61 63 65 67 68 70 71 71 71 72 72 72 71 71 70 69 67 66 64 61 59 57 56 54 52 50 48 45 43 41 39 37 36 35
54 56 59 61 63 65 67 68 69 71 71 72 72 72 72 71 71 69 68 66 64 61 58 54 53 51 49 47 45 43 40 38 37 34 32 31 29 28
56 58 60 63 65 67 68 69 70 70 71 72 72 72 71 71 69 66 64 61 58 55 53 50 47 44 42 41 39 37 35 33 31 29 28 26 25 24
57 60 62 64 67 69 70 70 69 69 71 71 71 70 69 67 65 62 59 56 52 49 47 44 41 38 36 36 35 32 30 28 26 25 24 23 22 21
59 62 64 66 68 69 70 70 70 70 69 69 67 66 65 63 61 59 55 50 46 42 40 39 36 34 31 31 30 28 26 24 23 21 20 19 18 17
61 63 66 68 69 70 71 71 70 69 67 66 64 63 61 59 57 53 48 44 41 38 36 34 32 30 28 26 26 25 22 21 19 18 17 16 15 14
63 66 67 68 70 71 71 70 68 67 65 63 62 60 57 54 50 45 42 40 38 35 33 31 28 26 25 23 22 21 18 17 16 15 14 14 13 12
65 67 68 69 70 69 68 66 65 64 62 61 58 55 52 48 43 40 38 36 34 32 30 27 25 23 22 21 19 17 15 14 13 13 12 12 11 10
66 67 68 68 67 66 64 63 62 61 59 57 54 50 46 42 38 36 34 32 30 28 26 23 22 20 20 18 16 14 13 12 12 11 11 10 9 9
66 67 67 66 65 63 61 60 59 57 54 51 48 44 40 37 34 31 30 28 26 25 22 21 19 18 17 16 14 12 12 11 11 10 9 9 8 8
67 67 66 64 62 59 57 56 54 51 48 46 43 39 35 32 29 27 25 24 22 20 19 19 18 16 15 14 12 11 11 10 9 9 8 7 7 6
66 65 63 60 58 55 54 52 49 46 44 41 38 34 30 27 25 23 21 20 19 18 17 16 15 14 13 12 11 10 10 9 8 8 7 7 6 6
64 62 59 56 54 52 50 47 44 42 39 36 33 29 26 23 21 19 18 17 16 15 15 14 13 13 12 11 10 9 9 8 8 7 7 6 6 5
61 58 55 53 51 48 45 42 40 38 35 32 28 25 22 20 18 17 16 15 15 14 13 12 12 12 11 10 9 8 8 8 7 7 6 6 6 5
58 55 52 50 47 44 41 38 36 34 31 28 25 22 19 17 17 16 15 14 13 12 11 11 11 11 10 9 8 8 7 7 7 6 6 5 5 5
54 52 49 45 42 39 37 34 32 30 27 24 21 19 17 17 16 15 14 13 12 11 11 11 11 10 9 9 8 8 7 7 6 5 5 4 4 3

GEFSNE_500_meanwind_114.txt.gz
Wind_Speed
43 44 45 46 47 48 49 50 51 51 50 51 52 54 55 56 57 59 60 61 62 63 65 66 67 68 69 70 70 70 69 69 70 70 71 72 73 73
44 45 46 47 48 49 51 52 53 54 53 53 55 57 58 59 61 63 64 65 66 67 68 69 70 70 71 71 70 70 70 70 71 71 71 71 71 71
44 45 47 48 49 51 52 54 55 56 56 55 57 59 61 62 64 66 68 68 69 70 70 71 71 71 71 71 71 71 71 71 71 71 70 69 68 67
45 46 48 49 50 52 53 55 56 57 58 58 59 62 64 66 68 69 69 70 71 71 71 71 70 70 71 71 71 70 70 70 69 68 67 65 64 64
46 47 49 50 52 53 54 56 57 59 61 61 63 65 67 69 70 70 71 71 72 71 70 70 70 70 70 69 69 68 67 66 64 63 61 60 59 58
47 49 50 52 53 54 56 57 59 61 63 64 66 68 69 70 71 71 71 71 70 69 69 70 69 69 67 66 64 63 61 59 57 55 54 53 51 50
48 49 51 52 54 55 57 59 61 63 65 67 68 70 70 71 71 71 70 69 68 69 68 67 67 65 63 61 59 56 54 51 50 49 48 47 45 44
48 50 51 53 55 57 59 61 63 65 67 69 70 71 70 71 71 71 70 68 67 66 65 63 63 61 58 55 52 50 47 46 45 44 42 40 38 36
49 50 52 55 56 58 60 62 64 67 69 71 71 71 71 71 71 70 69 68 66 64 62 59 57 54 50 48 45 43 42 40 39 37 35 33 32 31
49 51 54 56 57 59 61 64 66 68 70 70 70 71 71 71 70 69 67 64 62 60 59 54 50 46 44 42 41 39 37 35 33 31 30 28 28 27
51 53 55 57 59 61 63 65 66 67 68 69 70 71 70 69 69 66 63 61 58 55 53 49 44 41 39 38 37 35 32 30 29 27 26 25 24 23
52 54 56 59 61 63 65 66 67 67 68 69 69 69 67 65 63 61 59 57 54 50 47 43 39 37 34 33 32 31 29 27 25 23 22 21 20 20
53 56 58 61 63 64 65 67 68 68 68 68 67 65 62 60 58 56 55 53 50 45 41 37 34 32 30 28 28 27 25 23 22 20 19 18 18 17
55 58 60 62 63 64 66 67 67 66 66 65 63 60 57 55 53 52 50 48 44 39 36 33 30 28 27 25 24 23 22 20 18 17 16 15 15 15
57 59 61 62 63 65 65 65 65 65 64 61 58 55 52 50 48 47 45 41 37 33 30 28 26 24 23 21 20 19 18 17 16 15 14 13 13 13
58 60 61 62 63 64 64 63 63 62 59 56 53 50 48 46 44 42 39 35 31 29 27 24 22 21 20 19 18 17 16 15 14 13 12 11 11 11
59 60 61 61 63 63 62 61 59 58 55 52 49 46 44 42 40 37 34 30 28 26 24 21 19 19 18 17 16 16 15 14 13 11 11 10 10 10
59 60 60 61 61 61 59 58 56 54 52 49 45 43 41 39 36 33 30 27 25 23 21 19 18 17 16 16 16 15 14 13 12 11 10 10 9 10
59 59 60 61 60 59 57 55 53 51 49 45 42 39 37 35 32 30 27 24 22 21 19 18 17 16 16 16 15 14 13 12 11 10 9 9 9 9
59 59 60 59 58 57 55 53 51 48 45 41 39 36 34 32 29 27 24 22 20 19 18 17 16 15 15 15 14 13 12 11 10 9 9 8 8 8
58 59 59 58 56 55 53 51 48 44 41 38 36 33 31 29 26 23 21 20 19 17 17 16 15 15 15 14 13 12 11 10 9 9 8 8 8 7
58 58 57 56 55 53 51 48 44 41 38 36 33 31 28 26 23 21 20 18 17 17 16 15 15 15 14 13 12 12 11 10 9 8 7 7 7 7
57 57 56 55 53 51 48 44 40 38 36 33 30 27 25 23 21 19 18 17 16 16 16 15 15 14 13 12 12 11 11 10 8 8 7 6 6 6

GEFSNE_500_meanwind_120.txt.gz
Wind_Speed
38 39 40 41 43 45 46 47 48 49 49 49 51 52 53 55 56 58 59 60 61 63 64 66 67 68 69 70 70 70 69 68 68 68 68 69 69 69
38 39 41 43 44 46 47 48 49 50 50 51 53 54 56 57 59 60 62 63 64 65 67 68 69 69 69 69 69 69 68 68 68 68 68 69 69 70
39 40 42 44 45 46 47 48 50 52 53 53 55 56 58 60 61 63 64 65 66 67 68 69 69 69 69 69 69 69 68 68 68 67 67 67 67 68
40 41 43 44 46 47 47 49 51 53 54 55 57 59 60 62 64 66 66 67 68 69 69 70 70 70 70 69 68 67 66 65 63 63 63 63 63 62
41 42 44 45 46 47 48 50 52 54 56 58 59 61 63 65 66 67 68 69 69 69 70 70 70 70 68 66 65 64 62 60 59 59 58 57 56 55
41 42 44 45 46 48 50 52 54 56 58 60 62 64 65 67 67 68 68 69 69 70 70 70 68 67 64 62 60 59 57 55 54 53 51 49 48 47
41 42 44 45 47 49 51 53 55 58 60 62 64 66 67 67 68 68 68 69 69 69 68 67 64 62 59 57 56 54 52 50 48 45 43 42 41 41
41 42 44 46 48 50 52 54 57 60 62 64 66 67 67 68 67 67 67 67 66 65 64 61 59 56 54 53 51 49 46 42 40 39 37 37 36 36
41 43 45 47 49 51 53 56 59 62 64 66 67 67 67 66 66 66 65 65 64 61 59 55 54 52 50 47 45 42 39 36 35 34 33 32 31 29
42 43 45 48 50 53 55 58 61 63 65 66 67 66 65 65 64 64 63 62 59 57 54 51 49 48 45 42 39 36 33 31 30 29 28 27 26 25
42 44 47 49 52 54 57 60 62 63 64 65 65 64 63 63 62 62 60 58 55 52 50 48 46 43 41 37 34 31 29 27 26 24 24 23 22 21
43 45 48 51 53 56 58 61 62 63 64 64 63 62 61 60 60 59 57 54 52 49 46 44 41 38 36 33 30 28 26 24 22 21 21 20 19 18
44 46 49 52 54 57 59 61 62 62 63 63 61 60 58 58 57 55 52 50 48 45 42 39 37 34 31 29 27 25 23 22 21 19 18 17 16 16
45 47 50 52 55 58 60 60 61 62 62 61 59 57 56 55 53 51 48 47 44 41 38 35 33 30 28 26 24 23 21 20 19 18 17 16 15 15
45 48 50 53 56 58 59 60 61 61 61 59 57 56 55 52 50 47 45 43 41 37 34 31 29 27 25 23 22 21 19 18 18 17 16 15 14 13
46 48 51 54 57 58 58 60 61 60 59 57 55 54 51 48 46 44 42 40 37 34 31 29 26 24 23 22 20 19 18 18 17 16 15 13 12 12
47 49 52 55 57 57 58 59 60 59 57 56 53 50 47 45 43 41 39 36 33 30 28 26 24 22 21 20 19 18 17 17 16 16 15 13 12 12
47 50 53 55 56 57 58 59 58 57 56 53 49 47 44 42 40 38 36 33 30 28 26 25 23 21 19 18 18 17 16 16 16 15 14 13 12 12
48 51 54 56 56 57 57 57 57 56 53 49 46 44 42 40 38 36 33 31 28 26 24 23 21 20 19 18 17 16 16 16 15 14 13 13 12 11
49 52 54 55 56 57 56 56 55 53 50 47 45 42 40 38 36 33 31 28 26 24 22 21 19 19 18 17 16 16 15 15 14 14 13 12 11 10
50 52 54 55 56 56 55 54 53 51 49 46 43 40 38 36 33 31 28 26 24 22 20 19 18 18 17 16 16 15 14 13 13 13 12 11 10 10
50 52 54 55 55 54 54 53 51 50 47 43 41 38 36 33 31 28 26 24 22 20 19 18 17 16 16 15 15 14 14 13 13 12 11 11 10 9
51 52 54 54 54 54 53 51 50 48 45 42 39 37 34 30 28 26 24 22 20 19 18 17 16 15 15 14 14 13 13 12 12 11 11 10 10 9

GEFSNE_500_meanwind_126.txt.gz
Wind_Speed
38 39 39 41 42 43 43 44 46 46 47 48 49 51 52 53 55 57 59 61 62 63 64 64 65 66 66 66 66 66 67 66 66 66 66 65 64 64
38 39 40 41 42 43 44 45 47 48 48 49 51 52 54 56 58 60 62 63 64 65 66 66 66 67 67 67 67 67 67 66 66 65 63 62 61 60
39 40 41 42 42 43 44 46 47 49 50 51 53 54 56 59 61 63 64 65 66 66 66 67 67 67 67 66 66 65 65 63 62 60 58 56 55 54
39 40 41 42 42 43 45 47 48 50 51 53 54 57 59 61 63 64 65 66 66 66 66 66 66 65 64 64 63 62 61 59 57 55 54 52 51 50
39 40 41 42 43 44 46 47 49 51 53 55 56 58 61 62 64 65 66 66 66 66 65 64 63 63 62 61 60 58 57 55 53 50 48 48 46 46
39 40 41 42 43 45 47 49 51 52 54 56 58 60 62 63 65 66 66 66 65 64 63 62 61 61 59 58 57 55 53 50 48 45 44 43 42 40
39 41 42 42 44 46 48 50 51 53 55 57 59 61 62 65 66 66 65 63 62 62 61 59 58 57 55 54 53 51 49 45 43 41 39 38 37 35
39 40 41 43 44 46 48 50 52 54 56 58 60 62 64 65 66 65 64 62 60 59 57 56 55 53 52 51 49 47 44 41 39 37 35 33 32 30
39 40 41 43 45 47 49 51 52 55 57 59 61 63 65 65 64 63 62 61 59 56 54 52 51 50 49 47 45 43 40 37 35 33 31 29 28 27
39 40 41 43 45 47 49 50 52 55 57 59 62 64 64 64 63 62 60 58 56 54 52 50 48 47 45 43 42 39 36 34 31 29 27 26 25 24
39 40 41 43 45 48 49 51 53 56 58 60 62 63 63 62 61 60 58 55 53 51 49 48 46 44 43 41 39 36 33 31 28 26 25 23 22 22
39 40 42 44 45 48 49 51 54 56 58 60 61 62 62 61 60 58 55 53 51 49 47 46 44 42 40 38 35 33 30 28 25 24 22 21 20 20
39 41 42 44 45 48 50 52 55 56 58 60 61 60 60 59 58 56 54 52 49 47 46 44 43 41 39 35 33 31 28 25 24 22 20 19 18 18
39 41 42 44 46 48 51 53 55 56 58 60 59 59 58 58 56 55 52 49 47 46 45 44 41 39 36 33 30 28 26 23 22 20 19 18 17 17
39 41 42 44 46 49 51 53 55 57 59 59 58 58 57 57 55 53 50 48 46 45 44 42 40 37 34 30 28 25 23 21 19 19 18 17 17 16
39 41 42 44 47 49 51 53 55 57 58 58 57 57 57 55 53 51 49 47 45 44 43 41 38 35 32 28 26 24 22 20 19 18 17 17 16 16
39 40 42 45 47 49 51 54 56 57 57 56 56 56 56 54 52 50 48 46 44 42 41 39 36 33 29 26 24 22 21 19 18 18 17 17 16 15
39 40 43 45 47 50 51 54 56 57 56 55 55 56 55 54 51 48 46 44 42 40 38 35 33 30 28 24 22 21 20 18 17 17 17 16 15 14
38 40 43 45 48 50 52 54 56 56 55 54 55 56 55 53 49 47 44 42 40 38 35 32 29 27 25 23 21 19 18 18 17 17 16 15 14 13
38 40 43 46 48 50 52 54 55 56 55 55 56 55 54 51 48 44 42 40 38 35 32 29 27 24 23 21 20 18 17 17 17 17 16 15 14 13
38 40 43 46 49 50 52 54 55 55 55 55 55 54 51 49 46 42 40 38 35 32 29 27 25 23 21 20 19 18 17 17 17 16 15 14 13 13
38 41 44 47 49 51 53 55 56 55 54 54 53 51 49 47 44 40 38 35 32 29 27 25 24 21 20 19 18 18 18 17 16 16 15 14 13 12
39 41 45 48 50 51 53 55 55 54 53 52 51 49 47 45 41 38 35 32 29 27 25 24 22 20 19 18 18 18 18 17 16 16 15 14 13 12

GEFSNE_500_meanwind_132.txt.gz
Wind_Speed
35 35 36 37 38 40 41 42 42 43 44 46 47 49 50 51 53 55 57 58 60 62 64 66 66 65 63 62 62 61 60 60 59 59 59 58 57 57
35 35 36 37 39 40 41 42 44 45 45 46 48 50 51 52 54 56 58 59 62 64 66 66 65 64 62 61 60 58 58 57 57 57 56 55 55 54
35 35 36 38 39 40 41 43 45 46 46 47 49 50 51 53 55 57 59 61 63 65 65 65 64 62 60 59 58 57 56 55 54 54 53 52 52 51
35 35 36 38 39 41 42 43 45 46 47 48 49 50 52 54 56 58 60 62 64 64 64 64 62 60 59 57 56 55 54 52 51 50 50 49 47 46
35 36 37 39 40 41 42 43 44 46 47 48 50 51 53 55 57 59 61 63 65 64 64 62 60 59 57 56 55 53 51 49 49 48 47 45 43 42
35 36 37 39 40 41 42 43 44 46 48 49 50 52 54 56 57 60 62 64 64 63 62 60 58 58 57 56 53 51 49 48 47 46 45 43 40 37
35 36 37 39 40 41 42 43 44 46 47 49 51 53 54 56 59 61 63 63 62 61 60 58 58 57 55 53 50 48 47 47 46 44 42 39 36 33
35 36 37 38 40 40 42 43 45 46 47 49 51 53 55 57 60 62 62 62 60 59 57 57 56 55 53 50 48 47 46 46 44 42 38 34 32 30
34 36 37 38 39 40 41 43 45 46 48 50 51 54 56 58 60 62 61 60 59 57 56 55 55 53 51 49 47 46 45 44 42 38 34 32 30 28
34 35 36 38 39 40 41 43 45 47 49 51 53 55 57 59 60 60 59 59 58 57 56 55 54 52 50 49 47 45 43 41 39 35 32 30 27 25
33 35 36 37 38 40 42 44 45 47 49 51 53 56 58 59 59 59 58 58 57 57 56 55 52 51 50 48 46 43 40 38 36 33 30 27 25 23
33 34 36 37 38 40 42 44 45 47 49 52 54 56 58 58 58 58 58 57 57 55 55 54 51 49 48 46 44 41 38 36 33 30 26 24 23 21
33 34 35 37 38 40 42 44 45 47 49 52 55 57 58 57 57 58 58 57 56 55 54 52 49 47 45 43 41 38 35 33 30 27 24 22 21 20
33 34 35 37 38 40 41 44 45 47 50 52 55 57 56 56 57 58 57 56 56 54 52 50 47 44 42 40 38 36 33 30 27 24 22 20 19 18
32 34 35 37 38 39 42 44 46 47 50 53 55 56 55 56 57 57 56 56 55 53 50 47 44 42 40 38 35 32 30 27 24 22 20 19 18 18
32 33 35 36 37 39 42 43 45 48 51 54 55 55 54 55 57 56 54 54 54 52 49 45 42 39 38 36 33 29 26 24 23 21 19 18 17 17
32 33 34 36 37 39 41 43 45 48 52 54 55 54 54 55 55 54 53 52 51 49 47 45 41 38 35 34 31 27 25 23 21 20 19 18 17 16
31 32 34 36 37 39 41 43 46 49 52 54 54 53 54 54 54 52 51 50 49 47 44 42 40 38 35 31 29 26 24 22 21 19 18 17 17 16
31 32 34 35 37 39 41 44 46 49 52 53 53 53 53 52 52 50 49 49 47 45 41 39 37 34 32 30 27 24 23 22 21 19 17 16 15 15
31 32 33 35 37 39 42 44 47 49 51 52 52 52 52 51 50 49 48 47 46 43 40 38 35 32 29 27 25 23 21 21 20 19 17 16 15 14
31 32 34 36 38 40 42 45 47 49 51 51 51 51 50 49 48 48 47 46 43 41 38 36 34 30 27 25 24 22 20 19 19 18 17 16 15 14
30 32 34 36 38 40 43 45 47 49 50 50 50 50 48 47 47 47 46 44 41 39 37 35 32 28 25 24 23 22 20 19 18 16 15 15 14 13
30 32 34 36 38 40 43 45 47 48 48 49 49 48 47 46 46 46 44 42 40 38 36 33 30 27 24 22 21 21 20 19 17 16 15 14 13 12

GEFSNE_500_meanwind_138.txt.gz
Wind_Speed
34 35 35 36 37 39 40 41 42 43 43 44 46 48 49 51 52 53 54 56 57 59 60 62 64 64 65 65 63 61 60 58 56 55 54 52 51 49
35 35 35 37 38 39 41 42 43 44 44 45 47 48 50 51 53 54 56 57 58 60 62 63 65 65 65 64 61 60 59 57 55 54 52 51 49 47
36 35 36 37 39 40 41 42 43 44 45 46 47 48 50 52 54 55 57 58 59 61 63 64 65 65 64 61 59 58 57 56 54 52 50 49 47 46
36 36 37 38 39 40 41 42 43 44 45 46 47 49 51 52 54 56 57 59 60 62 63 65 65 64 62 60 59 58 56 54 52 51 50 47 45 44
36 36 37 39 39 40 41 42 43 43 45 46 47 49 51 53 55 57 58 60 61 63 65 65 64 62 60 58 57 57 55 53 51 50 48 46 44 43
36 37 38 38 39 39 41 41 42 44 45 46 47 49 51 53 55 57 58 60 61 63 65 64 62 60 59 57 57 55 53 51 50 49 47 45 43 41
36 37 37 38 38 39 40 41 42 43 45 46 48 50 52 54 56 57 58 59 61 63 63 62 60 58 57 56 55 53 52 50 49 48 46 43 41 39
36 36 37 37 38 38 39 41 42 43 44 46 48 50 52 54 56 57 58 59 60 61 61 60 59 57 57 55 54 52 50 49 47 46 44 41 39 36
35 36 36 37 37 38 40 41 42 42 44 46 48 50 52 54 56 57 58 59 59 59 59 59 58 57 56 55 53 50 48 46 45 44 42 39 37 34
35 36 36 36 37 38 39 40 40 41 44 46 48 50 52 53 55 56 58 58 59 59 59 58 57 57 56 53 51 48 46 45 44 43 40 37 34 31
35 35 35 35 36 37 38 38 40 42 44 46 48 50 51 53 55 56 57 57 58 58 58 58 56 55 54 52 49 47 45 44 43 41 38 34 31 29
35 35 34 34 35 36 37 38 39 42 44 46 48 49 51 53 55 56 56 56 57 57 57 57 55 53 50 50 48 46 45 44 42 39 35 31 29 27
34 33 33 33 34 35 36 38 39 42 44 46 47 49 50 53 55 55 55 56 56 57 57 56 53 51 50 48 47 46 44 42 40 36 32 29 27 25
32 31 32 33 34 34 36 37 40 42 44 45 47 48 50 53 54 54 55 56 56 56 56 54 51 49 48 46 45 45 43 40 37 33 30 28 26 24
31 31 31 32 33 34 35 38 40 41 43 45 46 48 50 52 54 54 55 56 57 56 55 52 50 49 48 45 43 42 40 38 35 31 29 27 25 23
30 30 30 31 32 33 36 37 39 41 43 44 46 48 50 52 53 54 54 55 55 55 53 51 49 47 46 45 42 40 38 36 33 30 28 26 24 22
28 29 29 30 32 33 35 37 39 41 42 44 46 48 50 51 52 53 53 54 53 52 51 50 49 47 45 43 41 39 37 35 32 29 27 25 23 21
27 28 29 30 31 33 35 36 39 40 42 44 46 48 50 51 52 53 53 51 51 50 49 48 47 46 45 42 39 38 36 34 31 29 26 24 23 21
26 27 29 30 31 33 34 36 38 40 42 44 45 47 49 50 51 52 51 50 49 49 48 47 45 44 43 41 38 36 35 33 30 28 26 23 22 21
26 27 28 29 31 32 34 36 38 40 42 43 44 46 48 49 50 50 49 47 47 47 47 46 44 42 41 39 37 35 33 32 29 27 24 22 21 20
26 27 28 29 31 32 33 36 38 40 41 42 44 46 47 48 49 49 47 45 45 46 46 44 43 41 39 38 36 34 32 30 28 25 23 21 20 19
26 26 28 29 30 32 34 36 38 39 40 42 43 45 46 47 48 46 45 44 45 45 45 44 42 40 38 36 35 33 31 29 27 24 22 20 18 17
26 27 28 29 30 32 34 35 37 38 40 42 43 45 46 47 46 44 43 43 44 44 44 42 40 38 36 35 33 32 30 28 25 23 21 19 17 16

GEFSNE_500_meanwind_144.txt.gz
Wind_Speed
37 37 37 36 36 37 37 38 39 39 40 42 43 44 45 47 48 50 51 53 55 55 56 58 59 60 61 62 61 60 59 57 55 53 53 52 51 51
37 37 37 37 37 38 38 39 40 41 41 42 43 45 46 47 49 50 52 54 55 56 57 58 59 60 61 60 59 58 57 55 53 52 52 52 51 50
37 37 37 37 38 38 39 39 41 41 42 42 44 45 47 48 49 51 52 54 55 56 57 58 59 60 59 59 58 57 56 54 53 52 53 52 51 49
38 38 38 38 38 38 39 40 41 42 42 42 43 45 46 48 49 51 53 54 55 56 57 58 59 58 58 58 58 57 55 54 53 53 53 51 49 46
38 38 38 38 38 39 39 40 41 42 42 43 43 45 46 47 49 51 53 54 55 56 57 58 58 58 58 57 57 56 55 54 53 53 50 48 46 44
38 38 38 38 39 39 40 40 41 41 42 42 43 44 46 47 49 51 52 53 54 55 56 57 57 57 57 57 57 55 54 53 52 50 48 46 44 42
38 38 38 38 39 39 39 40 41 41 41 41 43 44 46 47 49 51 52 53 54 55 56 57 57 57 57 56 55 54 53 52 50 48 46 44 42 40
38 38 38 39 38 39 39 39 39 40 40 42 43 44 46 47 49 51 51 52 54 55 55 56 57 57 57 56 55 54 53 51 49 46 44 43 41 39
38 38 38 38 38 38 38 38 39 40 40 41 42 44 46 47 49 50 51 52 54 54 55 56 57 57 57 55 54 53 51 49 46 44 42 41 39 37
38 37 37 37 37 37 38 38 39 39 40 41 43 44 46 47 48 49 50 52 53 54 54 56 57 57 56 55 53 51 49 47 44 42 40 39 37 36
38 37 37 36 36 36 37 38 38 39 40 41 43 44 45 46 47 48 49 51 53 53 54 54 55 55 54 53 51 49 47 44 42 40 39 38 36 34
38 37 36 35 35 36 37 38 37 38 40 41 42 43 44 45 45 47 49 51 52 52 52 53 54 53 51 50 48 46 45 42 40 39 38 36 35 33
38 36 35 35 35 36 36 36 37 38 39 40 41 42 43 44 45 46 49 50 51 51 51 52 53 52 50 47 46 45 43 41 39 38 37 36 33 31
36 34 34 34 34 34 34 35 37 38 38 39 40 41 42 43 44 46 48 49 50 51 51 51 51 50 48 45 44 43 42 40 39 38 37 35 32 30
34 34 33 33 33 33 34 35 36 36 37 38 39 40 41 41 43 45 47 49 50 50 51 50 49 48 46 44 42 41 41 40 39 37 35 33 31 29
32 32 32 32 32 32 33 33 34 35 36 37 38 38 39 40 42 44 46 48 49 50 50 49 48 47 45 43 42 40 40 39 38 36 34 32 30 29
31 31 31 30 30 31 32 32 33 34 35 36 36 37 38 40 42 44 45 47 48 48 47 47 47 46 44 42 40 39 38 38 37 35 33 31 29 28
31 30 29 28 29 29 30 31 32 33 34 34 34 36 38 40 41 43 45 46 47 46 46 45 45 45 43 41 39 38 37 37 36 35 33 31 29 28
29 28 27 27 27 28 29 30 31 32 32 33 34 35 37 39 41 42 44 46 46 45 45 44 43 43 41 38 36 36 36 36 35 34 33 31 29 28
28 27 26 26 27 28 28 29 30 31 31 32 33 35 36 38 40 42 43 45 45 44 43 43 42 41 39 36 35 35 35 35 35 34 33 31 29 27
27 26 25 25 26 27 28 29 30 30 30 32 33 34 36 38 39 41 42 43 43 43 42 41 40 39 37 35 34 34 35 35 34 33 32 30 28 26
26 25 25 25 25 26 28 29 29 29 30 31 32 33 35 37 39 40 41 42 41 41 40 39 38 37 36 34 34 34 35 34 33 32 30 29 27 25
25 24 24 24 24 25 26 27 28 29 30 31 32 33 35 37 38 39 40 39 39 39 38 37 36 35 34 34 33 34 34 33 32 30 29 28 26 23

GEFSNE_500_meanwind_150.txt.gz
Wind_Speed
39 38 38 37 37 37 37 38 39 39 39 40 41 42 43 45 46 47 48 50 51 53 55 57 59 59 59 59 60 60 59 59 58 57 56 54 52 51
38 38 37 37 37 38 38 39 39 40 40 41 41 41 43 45 47 48 49 51 52 54 56 57 58 58 58 59 60 59 59 58 58 57 55 53 52 51
38 37 37 37 37 38 38 38 39 40 40 41 41 42 44 45 46 47 49 50 52 54 56 57 57 57 58 59 59 58 57 57 57 56 55 53 51 50
37 37 37 37 37 37 37 38 39 39 40 40 41 42 44 45 46 47 49 50 52 54 55 56 57 57 58 58 58 57 56 56 56 55 53 52 50 48
38 37 37 36 36 36 37 38 38 39 40 40 41 43 43 44 46 48 49 50 52 53 54 55 56 57 57 57 56 56 55 55 54 53 52 51 48 47
38 37 36 36 36 37 37 37 38 38 39 40 41 42 43 44 46 48 49 50 51 52 54 54 56 57 57 56 55 55 54 54 53 52 52 50 47 45
37 37 36 36 36 36 36 37 38 38 39 40 41 42 43 44 46 48 49 50 50 51 53 54 55 55 54 53 53 54 54 54 53 52 50 48 46 43
38 37 36 35 35 35 36 37 38 38 39 40 41 42 43 45 46 47 48 49 50 51 52 53 54 53 52 52 53 53 54 53 52 50 49 47 44 42
37 37 35 34 35 35 36 37 37 38 39 40 41 41 43 44 46 47 47 48 49 50 51 51 52 52 52 52 53 54 53 52 50 49 47 45 42 41
37 37 35 34 35 36 36 37 38 39 39 40 40 41 42 44 45 45 46 47 48 49 49 50 50 50 51 52 53 53 52 50 48 47 45 43 41 39
37 36 34 34 35 36 36 37 37 38 39 40 40 40 42 43 44 45 45 46 47 48 49 49 49 49 50 51 52 52 49 47 46 44 42 41 39 38
36 35 35 35 35 35 35 35 35 37 38 39 39 40 41 42 43 43 44 45 46 47 47 48 48 48 48 50 50 49 47 45 43 42 41 40 39 37
35 34 34 34 34 33 33 33 34 36 37 37 38 39 40 40 41 42 43 44 46 46 47 47 48 48 48 48 47 46 44 43 42 40 40 40 39 37
35 34 34 33 34 34 33 33 35 36 37 37 38 38 38 39 40 41 42 44 45 45 45 46 47 47 47 46 45 43 43 42 40 39 39 40 38 37
36 34 34 34 34 34 33 34 35 35 35 36 36 36 37 38 39 40 41 42 43 44 44 44 45 45 45 44 43 42 42 41 40 39 39 39 37 36
36 35 34 33 34 33 33 34 35 35 35 34 34 35 36 37 38 39 40 40 42 42 42 42 43 43 43 42 42 43 42 40 39 38 38 37 36 35
35 35 35 35 34 33 33 34 34 34 33 32 33 34 34 36 37 38 39 39 39 40 40 41 42 42 42 42 43 42 41 39 38 37 37 37 36 34
35 36 35 34 33 33 33 33 32 31 30 30 31 32 33 34 36 36 37 37 37 37 38 40 41 41 42 42 42 41 39 37 36 36 36 36 34 33
34 34 33 32 32 32 31 30 30 29 28 29 30 31 32 33 34 35 35 35 35 36 37 38 39 40 41 41 41 39 37 36 35 35 35 35 33 32
33 32 31 30 30 29 28 28 28 28 27 28 28 29 31 32 33 33 33 34 35 35 36 38 39 40 41 40 39 37 36 35 34 34 35 34 33 31
31 30 29 28 27 26 25 26 26 25 26 26 27 28 30 31 31 31 32 33 34 35 35 36 38 39 39 38 37 37 35 34 33 33 34 33 31 30
29 28 27 25 24 23 24 23 23 24 24 25 26 27 29 29 28 30 31 32 33 33 34 35 36 38 38 37 36 35 34 34 34 34 33 31 30 29
28 27 26 24 22 22 22 21 21 22 22 23 25 26 27 27 27 29 30 30 31 31 32 33 35 36 37 36 35 34 33 33 33 33 31 30 29 29

GEFSNE_500_meanwind_156.txt.gz
Wind_Speed
41 41 41 39 39 38 38 38 37 37 36 37 37 38 39 40 41 42 43 45 46 48 49 51 52 53 54 55 56 56 55 54 54 53 52 52 51 49
41 41 41 39 38 37 37 37 36 37 37 37 37 38 39 40 41 42 44 45 46 48 50 51 52 53 54 54 55 55 54 53 52 52 52 51 50 50
42 42 41 39 37 37 37 36 36 37 37 36 36 37 39 41 41 42 43 45 46 48 49 51 52 52 52 53 54 53 52 51 51 51 51 50 50 50
40 40 39 37 36 36 36 35 36 36 36 36 36 37 39 40 41 42 43 45 46 48 49 50 51 51 51 52 51 51 50 50 50 50 51 50 50 51
39 39 38 36 36 36 35 35 35 36 36 36 36 37 39 40 40 41 43 44 46 47 49 49 50 50 50 50 49 49 49 49 50 50 50 50 51 50
38 38 37 36 36 36 35 35 35 36 36 36 36 37 38 39 40 41 42 44 45 47 48 48 48 48 47 47 48 48 48 49 49 50 50 50 50 49
38 37 36 36 36 36 36 35 35 35 35 36 37 37 37 38 39 40 42 43 45 46 47 47 46 46 45 45 47 48 48 49 49 50 50 49 48 46
38 37 36 35 36 36 36 36 35 35 36 36 36 36 37 38 39 41 43 43 43 44 45 45 44 44 44 45 46 47 48 48 48 48 48 47 46 44
38 37 36 36 36 36 36 35 35 35 35 34 34 35 36 37 39 40 41 41 41 42 43 43 42 43 44 45 46 47 47 47 47 47 46 45 44 42
38 36 36 36 35 35 34 34 34 34 33 33 33 34 36 37 38 39 39 39 39 41 42 41 41 42 43 44 46 47 48 47 46 45 44 44 43 41
39 37 37 36 36 35 35 34 33 32 32 33 34 35 36 37 37 37 37 37 39 39 39 39 40 41 44 46 46 47 47 46 45 43 43 43 41 40
39 37 36 35 35 34 34 34 33 33 33 34 34 35 36 36 35 36 36 36 37 37 38 38 40 42 44 45 46 46 46 45 43 42 42 41 40 39
38 36 35 35 34 33 33 33 33 34 34 33 34 35 35 35 34 35 34 35 35 36 37 38 40 42 43 44 45 45 44 44 43 42 41 39 38 37
37 36 35 34 33 33 33 33 33 33 33 34 34 34 34 33 32 32 33 33 34 35 36 38 39 41 41 43 44 43 43 42 42 41 40 38 36 34
36 34 34 34 33 32 31 31 31 31 32 32 32 32 33 32 31 31 32 34 35 35 36 37 38 39 40 41 42 42 42 41 41 39 38 35 33 32
36 35 35 34 33 32 31 31 31 31 31 30 30 30 30 29 30 31 32 33 34 34 35 36 37 37 39 40 41 41 40 40 39 37 35 33 31 30
35 34 34 34 32 32 32 33 32 31 30 30 30 29 28 28 29 30 31 31 32 33 33 35 35 37 39 39 39 39 39 39 37 35 33 31 30 28
35 34 33 34 33 32 32 32 31 29 29 30 29 27 27 27 29 30 30 30 31 32 32 33 35 36 37 36 37 38 38 37 35 33 31 30 29 27
33 33 32 32 32 31 30 30 29 29 29 28 27 26 26 27 28 29 29 29 30 30 31 32 33 34 34 34 36 36 35 34 33 31 30 29 28 27
32 32 31 31 30 30 29 29 28 28 27 26 25 25 25 26 27 27 27 27 28 29 29 30 31 31 32 33 34 34 33 32 31 30 29 28 27 27
31 30 30 29 28 28 28 28 27 26 25 24 23 23 24 25 25 25 26 27 27 27 28 28 29 29 30 31 31 32 32 31 30 29 28 28 27 27
31 30 29 28 27 27 26 26 25 25 24 23 23 22 23 23 24 24 24 25 25 25 25 26 27 28 28 29 30 30 31 30 29 28 28 27 27 26
30 30 28 26 26 25 24 24 23 23 23 21 20 20 21 22 22 22 22 22 22 23 23 24 26 26 26 27 28 29 29 30 29 29 28 28 27 26

GEFSNE_500_meanwind_162.txt.gz
Wind_Speed
47 47 45 44 45 44 43 42 42 40 38 37 39 39 39 39 40 41 41 42 43 44 45 46 47 49 49 49 49 48 48 49 50 51 51 51 51 51
47 46 43 42 44 43 42 42 40 38 38 37 38 38 39 39 40 41 42 42 42 43 45 46 47 47 47 48 48 47 48 49 50 51 50 51 51 50
47 45 43 42 43 42 42 40 39 39 39 38 38 39 39 39 40 40 40 41 42 44 45 46 46 46 47 47 47 47 48 49 50 51 51 51 51 50
46 46 44 42 42 41 40 39 38 39 39 38 38 39 39 39 38 39 40 40 42 44 44 45 46 45 45 45 46 47 48 49 50 51 50 50 49 49
45 45 44 42 41 40 39 38 38 39 39 39 38 38 39 38 37 38 39 40 42 42 43 44 43 43 44 44 45 47 48 49 50 50 49 48 48 48
44 44 43 42 40 39 38 38 38 39 39 38 37 38 38 37 37 37 39 39 40 41 42 42 41 42 43 44 46 47 48 49 49 49 48 48 48 48
42 42 42 42 40 39 39 38 38 37 37 37 37 37 36 35 36 37 38 38 39 40 40 40 40 42 42 44 45 46 47 47 49 49 48 48 48 47
42 42 41 40 40 41 40 38 38 38 37 37 38 37 35 36 36 37 37 37 37 38 39 39 40 41 42 44 44 45 46 47 48 49 48 47 47 46
43 42 41 39 40 40 38 37 36 36 36 37 36 35 35 35 36 36 35 36 36 37 38 39 40 41 42 43 44 45 46 47 48 48 47 46 44 43
41 42 40 39 39 39 38 37 36 37 36 36 36 35 35 34 34 34 34 35 36 36 37 38 39 40 41 42 43 44 46 47 48 48 46 44 42 41
40 40 39 38 38 38 37 36 36 35 34 35 36 36 34 34 34 34 34 34 35 36 37 37 38 39 40 42 43 44 45 47 47 46 44 42 41 41
39 40 40 38 37 37 37 36 35 34 34 35 34 34 34 34 33 33 33 33 34 35 35 36 38 39 40 41 41 43 45 45 46 45 43 41 40 39
37 39 39 38 37 36 35 35 34 33 33 32 32 32 33 33 32 31 32 32 33 34 35 36 38 39 39 39 40 42 44 44 43 43 42 39 37 36
35 37 38 37 35 34 34 34 33 32 32 31 30 30 30 30 30 30 30 30 31 33 35 36 37 38 38 38 40 41 42 42 41 40 39 37 35 34
35 35 35 34 34 34 33 32 32 32 31 30 29 29 29 29 29 29 30 30 31 32 34 35 37 37 37 38 39 39 39 39 38 37 36 35 34 32
33 33 34 35 35 34 33 32 32 31 30 29 29 28 28 28 28 29 29 29 30 32 33 35 35 36 37 37 36 36 36 36 36 35 34 33 32 31
32 33 34 34 35 34 33 33 32 30 29 28 28 27 27 27 28 29 29 29 30 31 32 34 34 34 33 33 32 32 33 34 35 34 33 32 32 30
31 31 31 32 32 32 32 32 31 31 30 29 28 26 26 27 28 29 28 28 30 30 31 31 31 30 30 30 30 31 33 33 34 33 32 31 31 30
30 30 30 29 30 30 31 31 30 30 29 29 28 28 28 28 28 28 27 27 29 29 29 28 27 28 28 28 29 30 31 32 33 32 30 30 30 28
29 29 28 28 29 29 29 29 28 28 27 27 27 27 27 27 27 27 26 26 27 26 25 25 25 26 26 26 27 28 29 30 31 31 29 29 28 27
29 29 29 28 28 28 28 27 27 26 25 25 25 25 25 24 23 23 23 23 23 23 23 23 24 24 25 25 25 26 27 28 29 29 28 27 27 26
29 28 28 28 27 27 26 26 26 25 24 23 23 23 22 21 21 21 21 20 20 21 22 22 22 22 23 23 24 24 25 26 28 29 28 26 26 25
28 28 27 27 27 26 25 25 25 24 23 22 22 22 21 20 20 20 19 18 19 19 20 21 21 21 22 23 23 23 23 24 26 28 27 26 25 24

GEFSNE_500_meanwind_168.txt.gz
Wind_Speed
48 49 51 51 50 48 48 48 46 45 43 42 42 41 40 41 41 41 40 39 40 41 42 42 43 45 45 46 46 45 45 44 45 47 47 47 47 47
46 47 49 50 50 47 47 47 45 44 43 43 42 42 41 41 40 41 40 40 40 41 42 42 42 44 44 44 44 43 43 44 46 47 47 47 48 47
45 45 46 47 48 47 45 44 43 43 43 42 42 42 40 39 39 39 40 40 40 40 42 42 42 43 42 43 43 42 43 44 45 46 46 47 47 46
44 45 45 45 46 45 44 42 42 43 42 41 41 40 40 39 39 39 39 39 40 41 42 41 42 42 43 42 41 41 42 43 44 45 46 47 47 46
44 44 44 44 44 44 44 42 41 42 42 41 41 40 39 39 39 38 38 39 40 41 42 41 41 42 42 40 40 40 41 42 44 46 46 46 46 45
43 43 43 44 44 44 45 43 42 42 41 41 41 40 39 39 38 38 38 39 39 40 41 40 40 40 39 39 39 40 41 42 44 45 45 45 45 44
42 42 43 43 44 44 44 43 42 42 41 41 40 39 39 39 39 38 38 39 39 39 39 39 38 37 38 38 38 39 40 41 43 45 45 44 43 42
40 41 42 43 42 42 42 42 41 41 40 40 38 38 37 37 38 37 38 38 37 37 36 36 35 36 36 37 37 38 39 40 42 43 44 43 42 41
38 39 41 42 41 41 40 41 40 40 40 39 39 39 38 37 37 37 36 36 35 35 35 34 35 35 35 35 36 37 38 40 41 41 42 41 40 40
36 37 39 39 39 40 40 39 38 38 39 39 39 39 38 37 36 36 36 35 35 34 34 34 34 34 34 34 35 36 38 39 40 41 41 39 39 38
33 35 37 37 36 38 38 38 38 37 37 38 37 37 37 36 35 36 35 34 33 32 32 33 33 33 33 33 34 36 37 38 39 39 39 37 37 36
33 33 34 35 36 36 37 37 37 37 37 37 37 36 35 35 34 34 33 33 32 31 31 32 32 32 33 33 34 35 36 37 37 37 36 35 35 33
33 32 32 33 35 36 36 35 35 36 36 36 35 34 34 34 34 33 32 32 32 32 31 32 32 32 32 32 33 33 34 35 35 34 34 33 33 32
31 32 33 34 34 34 35 35 34 34 35 35 34 33 33 33 32 31 30 30 30 30 31 30 30 30 31 31 31 31 32 33 33 32 32 31 31 31
30 31 33 33 32 32 32 33 33 33 33 33 33 32 32 31 31 30 29 29 29 29 29 28 29 29 29 30 30 30 31 31 31 30 30 29 29 29
27 29 29 30 30 30 31 32 32 32 32 32 31 31 30 30 29 29 28 27 27 27 27 27 28 28 28 28 28 28 29 29 29 28 28 28 28 28
26 26 27 28 29 28 29 31 32 32 31 31 30 30 30 29 28 28 27 27 26 25 25 25 26 26 25 26 26 27 26 26 27 27 27 27 28 28
25 26 26 27 28 28 28 29 29 30 30 29 29 29 29 28 27 26 27 26 25 24 24 23 24 24 24 24 25 25 24 25 25 26 26 26 26 27
24 25 26 27 27 27 27 27 27 28 28 28 28 28 27 26 26 26 25 25 24 23 22 22 22 22 22 23 23 22 22 23 23 24 24 25 25 25
23 24 26 26 26 26 26 25 25 25 26 27 27 27 26 25 24 24 23 22 21 21 21 20 19 20 20 21 20 19 20 21 22 23 23 23 24 24
22 23 24 25 24 24 23 23 23 23 24 25 25 24 24 23 22 21 20 19 18 18 18 18 18 18 19 19 18 18 19 20 21 21 21 22 23 23
21 21 22 23 23 22 22 23 23 23 23 22 22 23 22 21 20 19 18 17 16 16 17 17 16 17 17 17 17 18 18 19 20 20 20 20 21 21
21 22 22 22 22 21 21 22 22 21 21 21 21 22 21 20 19 18 18 17 16 16 16 15 15 15 15 16 16 16 17 18 18 19 19 19 20 19

GEFSNE_500_meanwind_174.txt.gz
Wind_Speed
45 46 46 45 45 44 44 44 44 45 45 46 46 46 46 45 44 44 43 42 42 41 41 42 43 43 43 44 43 44 46 47 47 47 46 46 46 45
44 43 43 44 43 42 42 42 42 43 43 43 44 44 42 42 44 44 42 41 41 41 42 42 42 43 43 43 43 44 46 47 47 47 46 45 45 45
42 42 41 42 42 40 40 41 42 43 43 42 42 42 41 41 41 41 42 41 40 41 42 41 42 43 43 43 43 45 46 46 46 45 44 44 44 44
40 39 39 40 41 40 40 40 40 41 41 40 40 41 41 40 40 40 41 40 40 40 41 40 41 41 42 43 43 44 45 45 44 43 42 42 43 43
38 38 38 38 39 40 41 41 41 41 41 40 39 40 39 38 39 40 41 41 40 39 40 40 40 41 42 42 43 43 43 42 42 42 41 41 42 42
36 37 36 37 38 40 40 40 40 40 40 40 39 38 37 36 38 40 41 41 39 40 40 40 40 40 41 41 41 41 41 41 40 40 39 39 40 41
34 35 36 36 37 38 38 38 38 38 39 39 38 37 36 37 38 39 40 39 38 39 39 38 38 39 39 39 39 39 39 38 38 37 37 38 39 40
33 33 34 34 35 36 37 37 36 37 36 36 37 38 38 38 38 39 38 38 37 37 37 37 37 38 38 37 37 37 36 37 36 36 36 37 38 39
31 31 32 33 34 36 36 35 36 36 36 36 36 37 37 37 37 37 38 38 36 35 36 35 36 36 35 35 35 36 35 35 34 34 34 36 37 38
30 30 31 32 33 34 34 35 35 35 34 34 35 36 36 35 35 36 36 37 35 34 35 34 33 33 33 34 34 34 34 33 33 32 33 34 36 36
29 29 30 30 32 33 32 33 32 32 34 34 35 36 35 35 34 34 34 33 32 31 31 31 31 31 32 32 33 33 33 32 32 31 31 33 34 34
27 28 28 29 30 30 30 30 31 31 31 31 32 33 33 33 33 32 31 31 30 30 29 29 30 31 31 31 32 32 31 30 30 29 30 32 33 33
26 27 27 28 28 27 28 29 29 30 30 29 29 31 32 32 31 31 29 29 28 29 29 29 28 29 30 30 29 29 28 27 27 27 28 29 30 30
25 25 26 27 27 27 28 28 27 27 28 28 29 30 30 29 29 30 29 27 27 27 28 28 28 28 28 27 27 27 26 25 25 25 26 28 29 29
24 24 25 25 25 26 26 27 27 26 26 27 28 29 28 28 27 28 28 27 26 26 26 27 27 27 27 26 25 24 24 22 22 23 25 26 27 27
22 23 24 24 25 25 25 25 25 25 26 26 26 26 26 26 26 26 26 26 26 25 25 25 24 24 25 24 22 21 20 20 21 22 24 25 25 26
23 23 23 23 23 24 24 24 25 24 24 24 24 24 24 25 26 26 25 24 24 24 24 23 23 23 23 21 19 19 18 19 20 22 22 23 23 23
23 23 22 22 22 23 23 24 24 23 23 22 22 23 24 24 24 23 23 23 23 23 23 22 21 20 18 17 17 18 18 18 19 20 20 21 21 21
23 22 22 22 22 21 22 22 22 22 21 21 21 21 22 22 21 21 21 21 21 21 20 19 18 16 16 15 16 16 17 17 17 17 18 18 19 19
22 22 21 21 21 21 21 21 21 21 21 20 20 20 19 19 19 20 20 20 19 18 17 17 16 15 14 13 14 14 14 14 15 15 16 17 17 17
22 22 21 21 21 21 20 20 20 19 19 18 18 18 18 17 17 18 18 18 17 15 15 14 14 13 13 12 12 11 12 12 13 14 15 16 16 16
21 21 20 20 20 20 19 18 18 18 17 16 16 16 16 16 16 16 16 16 15 14 13 13 13 12 11 10 10 9 10 11 12 13 13 13 13 13
20 19 19 19 18 18 18 18 17 17 15 15 15 15 15 15 15 15 15 14 13 13 13 13 12 11 10 9 9 8 9 10 11 12 11 11 12 12

GEFSNE_500_meanwind_180.txt.gz
Wind_Speed
41 41 42 42 44 45 46 46 47 46 44 43 43 44 45 46 47 48 49 48 48 48 48 49 48 47 46 46 45 45 46 46 46 45 45 45 44 44
40 40 40 42 42 43 44 45 45 45 43 41 41 42 43 44 45 46 47 47 47 48 48 48 48 47 47 45 45 45 46 46 45 44 44 44 43 43
38 39 39 41 40 41 43 43 42 43 42 41 42 42 42 42 44 44 45 46 45 46 47 46 46 45 45 43 43 43 43 45 45 44 43 42 41 42
36 37 37 37 38 39 39 39 39 40 41 41 41 42 42 43 43 43 43 44 44 45 45 44 43 42 42 42 42 43 43 44 43 42 41 41 41 42
35 34 35 35 35 36 36 36 37 38 39 39 39 40 40 41 41 41 41 42 43 43 43 42 41 41 41 41 42 42 43 43 42 40 39 40 40 41
33 32 32 33 33 35 35 35 36 36 37 36 36 37 38 39 39 39 40 41 41 41 40 39 39 39 40 40 41 42 43 43 41 39 39 39 39 39
30 31 32 32 32 33 33 34 34 35 35 35 34 35 36 36 36 38 38 38 38 38 38 37 37 37 40 40 40 41 41 40 39 38 37 37 36 37
29 31 32 32 31 31 32 33 33 34 35 35 34 33 34 34 35 36 36 35 35 35 36 36 37 37 38 38 39 39 39 38 37 35 34 34 34 34
29 30 31 30 31 31 32 32 33 33 34 33 33 32 32 32 33 34 34 33 33 33 35 35 36 36 37 37 37 36 35 35 33 32 31 32 32 32
28 28 28 29 30 32 33 32 32 32 31 31 32 31 31 32 32 32 32 31 31 31 33 34 34 34 35 35 34 33 31 31 31 30 30 30 29 28
27 28 29 30 31 32 31 30 30 30 31 31 30 31 31 32 32 32 31 30 29 30 32 32 32 32 32 32 31 30 29 28 28 28 27 27 26 26
28 29 29 30 30 30 29 29 28 28 29 29 30 31 31 31 31 31 30 29 28 27 29 30 30 30 30 29 29 29 28 27 27 25 25 24 25 25
28 29 29 28 28 27 28 27 27 27 27 27 29 30 30 30 29 28 28 27 26 25 27 29 28 28 28 27 26 26 26 26 26 25 23 23 23 24
28 28 28 27 26 26 26 26 26 26 26 26 27 27 27 27 27 26 25 25 24 24 26 26 25 26 25 25 25 24 24 23 23 23 22 23 23 22
27 27 26 25 25 25 25 25 25 25 25 24 24 24 24 24 25 24 23 23 23 23 24 24 24 24 24 23 23 22 22 21 21 21 21 21 21 21
25 25 25 25 24 25 25 25 25 24 24 23 23 23 23 23 23 23 22 22 22 22 22 22 22 22 21 21 20 20 20 19 19 19 19 19 20 19
24 23 22 22 22 22 23 23 23 23 23 23 23 23 23 21 21 21 21 21 21 20 20 21 21 21 20 19 18 17 17 17 16 17 17 17 17 16
22 21 21 20 20 20 21 21 22 22 23 23 23 22 21 20 20 20 20 20 20 20 19 19 19 19 18 16 16 16 15 14 14 14 14 14 13 13
21 20 20 20 20 20 20 21 21 22 22 22 22 21 19 19 19 20 19 19 18 18 18 18 17 17 16 15 15 14 13 13 12 12 12 11 10 10
21 21 21 20 20 20 20 20 20 20 20 20 20 20 19 18 17 18 18 17 17 17 16 15 15 14 14 14 13 12 11 10 10 10 10 9 9 8
21 21 21 21 20 20 19 19 19 19 18 18 17 17 17 17 16 16 15 15 15 14 14 14 14 13 12 12 11 10 9 9 9 9 8 8 7 6
20 20 21 20 20 19 19 19 18 17 16 16 16 16 15 15 15 15 14 13 13 13 13 13 12 12 11 10 10 9 8 8 8 7 7 6 5 4
19 19 19 19 18 18 18 18 17 16 15 14 14 15 15 14 13 13 13 12 12 12 12 11 11 11 10 9 9 9 8 7 7 6 6 5 4 3

GEFSNE_500_meanwind_186.txt.gz
Wind_Speed
39 39 40 40 41 42 43 43 45 44 43 43 44 45 46 46 47 47 47 48 48 48 48 49 50 50 51 51 51 51 50 49 49 47 48 49 48 47
37 38 38 39 40 40 42 43 44 44 43 42 43 43 44 44 45 45 45 45 46 46 46 48 50 49 48 49 50 49 49 48 47 47 48 47 46 44
35 36 37 36 36 37 39 40 41 41 40 39 41 41 41 42 43 44 44 43 44 44 46 47 48 48 47 47 47 47 47 47 46 46 44 45 44 42
35 35 34 34 34 35 36 37 37 37 38 38 38 38 39 40 40 41 42 42 43 44 45 46 46 46 44 44 45 45 45 45 45 44 43 43 41 41
32 31 31 31 30 31 33 35 35 35 36 37 36 36 38 39 38 39 41 41 42 42 42 42 43 42 42 43 44 44 43 43 42 41 40 39 38 39
28 29 29 28 28 29 30 32 33 34 35 36 36 36 36 36 38 38 38 40 39 39 40 40 41 42 41 41 41 41 41 41 40 39 37 37 37 38
27 28 28 27 27 28 29 30 31 33 34 34 34 34 34 34 36 37 38 38 38 38 39 39 39 40 40 38 38 39 39 38 38 37 36 36 36 36
26 27 27 27 28 28 29 30 31 32 32 33 32 31 31 31 32 35 36 36 36 37 37 37 37 37 37 37 37 37 37 36 35 35 35 35 35 34
25 26 27 27 27 28 29 30 31 31 32 31 32 31 30 30 31 32 34 34 34 34 34 33 34 34 34 35 36 36 35 34 34 34 32 32 31 31
25 26 27 27 27 28 29 29 30 31 31 31 31 30 30 30 31 32 33 33 31 31 31 31 30 31 31 33 33 33 32 31 31 31 30 29 29 28
25 26 28 28 28 29 30 30 30 31 31 31 30 29 29 30 31 32 31 30 29 28 28 27 27 27 28 29 30 31 30 28 27 28 28 27 27 26
25 27 28 28 28 29 30 30 30 30 30 29 29 29 28 29 30 30 29 28 27 26 26 26 26 25 25 26 27 28 28 26 25 26 25 24 24 23
26 26 26 27 29 29 29 29 29 29 28 27 27 28 28 29 28 28 27 27 26 25 25 25 24 24 25 25 25 25 24 23 23 23 22 22 21 21
26 26 27 28 28 28 28 28 27 27 26 26 26 27 27 27 27 27 26 25 25 24 24 23 23 22 22 22 22 21 21 21 20 20 19 19 19 19
27 27 28 28 28 27 27 27 26 25 25 25 25 26 26 26 26 25 25 24 23 23 22 21 21 21 19 19 18 18 18 18 17 18 18 18 17 17
28 29 29 29 27 26 26 25 24 24 24 23 23 23 24 24 25 24 23 23 22 21 20 19 19 18 18 17 17 16 16 15 15 15 16 15 15 15
28 28 27 26 25 25 24 24 23 22 22 22 22 21 22 22 23 22 21 20 20 20 19 18 17 17 16 15 15 15 14 13 13 13 13 14 14 13
27 26 25 24 23 23 22 21 21 20 21 21 21 21 21 21 20 20 19 19 19 18 17 16 15 15 14 12 12 12 12 12 12 11 12 13 12 12
25 25 24 23 23 22 21 20 20 20 21 22 22 21 21 20 20 19 18 18 18 17 16 15 13 12 10 9 10 11 11 11 10 10 11 11 10 10
24 23 23 22 22 20 19 19 19 20 21 22 22 22 21 21 20 19 18 17 17 16 14 13 11 9 8 8 8 9 9 9 9 9 10 10 9 8
23 23 22 21 20 19 19 19 20 20 21 21 21 20 20 19 18 17 16 15 15 14 13 11 10 9 8 7 7 7 7 8 9 9 9 9 8 7
23 21 20 19 18 18 19 19 19 20 20 20 19 18 18 17 16 16 15 14 13 12 10 10 9 8 7 6 6 6 7 8 8 8 7 7 6 5
21 20 19 18 18 18 18 19 19 20 20 19 18 17 16 15 14 14 12 12 11 10 9 9 9 8 6 5 5 5 6 7 7 7 6 5 3 3

GEFSNE_500_meanwind_192.txt.gz
Wind_Speed
36 36 37 36 37 38 40 40 40 40 41 41 43 44 44 44 44 44 45 46 47 47 46 47 48 48 49 49 50 51 51 50 51 51 50 49 48 48
34 34 35 36 37 37 38 37 37 38 39 39 40 42 44 44 44 45 46 47 47 45 45 46 46 46 47 48 50 50 49 50 50 50 49 49 49 47
32 33 34 35 35 36 36 35 36 37 37 38 38 40 41 41 41 42 44 44 43 42 42 44 45 46 47 47 47 47 47 48 48 48 47 47 47 46
31 30 32 34 34 34 34 34 34 35 35 36 36 38 38 39 39 40 40 40 40 39 39 41 43 44 44 44 43 44 45 46 45 45 44 44 43 43
30 30 31 31 32 31 31 32 33 33 33 34 34 34 35 36 37 37 37 37 38 37 38 39 40 41 41 41 42 43 44 43 42 41 40 40 40 39
29 29 30 29 29 30 30 31 30 31 31 32 32 32 32 32 34 34 34 34 35 37 38 38 39 40 39 39 40 41 41 40 39 38 38 38 37 37
28 28 28 27 27 28 27 27 27 28 29 29 29 29 29 29 30 31 33 33 35 35 35 36 36 37 37 37 37 39 39 38 36 36 36 36 35 36
28 27 26 26 26 25 26 26 26 27 27 27 26 27 27 28 29 31 32 32 32 32 33 33 33 34 34 34 35 36 36 34 34 34 34 34 33 34
26 25 24 24 23 24 25 25 26 26 26 26 26 26 27 28 29 30 30 30 29 29 30 30 30 31 31 31 31 32 32 31 30 31 31 31 31 31
24 24 23 23 23 23 24 24 24 25 25 26 26 26 26 26 27 28 28 28 29 29 30 30 29 29 29 29 30 31 30 28 27 27 27 27 27 27
23 22 22 22 22 23 23 24 25 25 26 26 26 27 27 27 27 27 27 27 27 28 29 29 28 28 28 27 27 26 25 24 24 24 23 23 24 23
22 22 21 22 22 23 24 25 26 26 26 26 26 27 27 27 27 27 27 27 26 26 26 26 26 25 24 24 25 24 23 22 21 21 21 21 20 21
21 21 21 22 22 23 25 25 26 26 26 26 26 25 25 25 25 25 25 26 25 25 25 24 24 23 23 23 23 23 21 19 19 19 19 19 18 18
22 21 21 22 22 23 24 25 26 25 25 25 24 24 23 23 23 24 23 23 24 24 24 23 23 22 22 22 21 21 19 18 18 18 18 18 18 18
22 22 22 23 23 23 24 25 24 24 24 23 23 22 22 22 22 22 22 21 21 22 22 22 21 20 20 20 20 19 17 17 16 17 17 17 16 16
23 23 23 23 23 24 24 24 23 23 22 22 21 21 21 21 20 20 20 20 20 20 21 21 20 19 18 18 17 16 14 14 14 15 15 15 14 14
24 23 24 23 24 24 23 23 22 22 22 21 21 21 20 20 19 19 19 20 20 20 20 19 18 17 16 15 14 13 13 12 12 13 13 12 12 12
24 24 24 24 24 24 23 22 22 22 21 20 20 20 20 19 19 19 19 19 20 19 19 17 16 15 14 13 12 12 11 11 10 10 10 10 10 10
24 24 24 24 24 23 22 22 22 21 21 20 20 19 20 20 19 19 19 19 19 18 17 16 14 14 14 13 11 10 9 9 9 9 8 7 7 7
23 23 24 24 23 22 21 21 21 20 20 19 20 20 20 20 19 19 18 18 18 17 15 14 13 13 12 11 10 8 7 7 7 7 6 6 6 5
23 24 24 23 22 21 20 20 20 20 19 19 20 20 19 19 19 18 18 18 17 16 14 13 12 11 11 10 8 6 6 5 5 5 4 5 5 4
24 24 24 23 21 21 20 20 19 19 19 20 20 20 19 19 18 17 17 16 15 14 13 11 10 9 9 8 6 6 5 5 5 4 4 4 4 3
25 24 23 22 21 20 20 20 19 19 19 20 20 19 19 18 16 15 15 14 12 11 11 9 9 8 7 7 6 5 5 5 5 4 3 3 2 2

GEFSNE_500_meanwind_198.txt.gz
Wind_Speed
35 35 35 36 37 37 37 37 36 37 36 36 37 37 38 39 40 41 41 42 43 44 45 46 47 48 49 49 49 48 48 48 48 48 48 48 46 46
34 34 34 35 35 36 36 36 35 35 34 34 36 36 37 37 38 39 39 40 41 42 43 45 46 46 46 47 46 46 47 47 46 45 45 45 45 44
33 33 33 33 34 34 34 34 34 33 34 33 34 35 35 35 35 36 37 38 40 41 41 42 43 43 43 43 43 43 42 43 42 41 42 42 42 41
32 32 31 31 32 32 31 32 32 32 32 32 33 34 33 33 33 34 35 37 38 39 39 39 40 40 40 40 39 39 38 39 38 39 39 39 39 39
30 31 31 30 30 29 29 30 31 31 32 32 32 32 32 32 32 32 33 34 36 36 36 37 37 37 37 36 37 37 36 36 36 36 36 36 36 36
29 29 29 29 30 29 29 30 30 30 30 30 31 30 30 30 30 31 32 32 33 34 34 34 34 33 34 34 35 35 34 34 34 34 34 33 33 33
28 28 28 29 29 29 29 29 28 28 28 28 28 28 28 28 29 29 30 30 31 32 32 31 31 31 32 33 33 32 31 31 32 32 32 31 31 32
27 27 28 28 29 28 28 27 27 26 26 26 26 26 26 27 27 27 29 29 29 29 29 29 28 30 31 31 31 30 30 30 30 30 30 30 31 31
27 28 28 28 28 28 26 25 24 24 25 25 24 24 24 25 26 27 27 28 27 27 26 26 27 29 29 30 29 28 28 28 27 27 27 28 29 29
27 28 28 28 27 26 25 24 24 24 23 23 23 23 24 25 25 26 25 26 25 25 25 26 27 27 27 27 26 25 25 26 25 25 25 26 25 24
26 27 26 25 25 25 24 23 23 22 22 22 22 22 23 24 25 24 24 24 24 25 25 26 26 26 25 26 26 25 24 24 23 23 23 22 21 21
25 25 25 25 24 23 23 23 21 21 22 22 22 22 23 24 24 24 23 24 25 25 24 24 24 24 24 24 24 24 23 22 22 21 20 20 19 18
24 24 24 23 22 21 21 21 21 21 22 22 22 23 24 24 24 24 24 25 25 24 23 23 23 23 23 21 21 22 22 20 19 18 17 17 16 16
23 22 22 22 22 21 21 21 21 22 22 23 24 24 24 24 24 24 25 25 24 23 23 23 23 23 22 21 19 19 19 18 17 15 14 14 15 15
22 22 22 21 20 20 21 21 21 23 24 24 24 25 25 24 24 25 25 24 23 22 22 22 23 23 21 20 19 19 18 17 17 15 15 15 15 15
22 22 21 20 20 20 20 21 22 23 24 24 25 25 25 25 25 25 24 23 21 21 21 21 22 21 19 18 19 19 18 16 15 15 14 14 14 13
21 21 20 19 19 20 20 21 23 24 24 25 25 25 25 25 24 23 21 20 20 20 20 20 19 18 17 17 17 17 16 14 14 14 13 13 13 12
21 21 20 19 19 20 21 22 23 24 25 25 25 25 24 23 22 21 20 19 19 19 19 18 17 16 15 16 16 16 14 13 12 12 12 12 11 9
20 19 19 20 20 21 22 23 24 25 26 26 25 24 23 22 20 19 18 17 18 17 17 16 15 15 15 14 15 15 14 13 12 11 11 11 9 7
20 20 20 21 21 22 23 24 25 25 26 25 24 22 21 20 19 17 16 16 16 16 16 15 14 14 14 14 14 14 13 12 11 11 10 9 7 6
21 21 21 22 22 24 24 25 26 25 25 24 22 21 19 18 17 16 16 16 15 15 15 14 13 14 14 14 13 13 13 12 11 10 8 6 5 4
22 22 23 23 24 25 25 26 26 25 24 22 20 20 19 18 17 17 16 16 15 14 13 13 13 13 14 13 12 12 12 12 11 9 6 4 3 2
23 23 24 25 25 26 26 26 25 23 21 21 20 19 18 17 17 16 16 15 15 14 13 12 12 13 13 12 11 11 10 10 8 6 3 2 1 2

GEFSNE_500_meanwind_204.txt.gz
Wind_Speed
34 34 34 34 34 34 34 35 35 34 33 33 34 34 35 36 35 35 35 35 37 38 39 41 43 45 46 46 46 46 45 45 46 46 45 45 44 44
33 33 33 34 34 34 35 35 34 34 32 32 32 33 34 33 33 33 34 35 35 36 37 39 40 42 42 43 43 43 43 44 44 44 44 44 42 41
33 33 34 34 34 34 34 33 32 32 31 31 32 33 32 30 30 31 31 33 34 35 35 35 37 37 37 38 39 39 40 41 41 41 41 41 40 39
32 33 33 33 33 33 32 31 30 31 31 31 31 31 30 29 29 30 31 31 32 32 33 34 34 34 33 33 34 35 36 37 38 38 38 38 38 38
31 31 31 31 31 31 30 30 30 30 29 29 29 28 28 27 28 29 30 31 31 32 32 32 31 30 30 31 32 32 33 34 35 35 35 35 35 36
30 29 30 29 29 29 29 29 29 29 28 28 28 27 27 26 27 28 28 29 30 30 30 30 29 29 30 30 30 30 30 31 32 32 32 32 32 33
29 29 29 29 28 29 28 28 28 28 28 28 27 26 25 24 26 27 28 27 28 28 28 28 28 28 29 29 28 27 28 28 29 29 28 29 29 29
28 28 29 29 28 28 28 27 28 28 27 27 25 24 23 24 26 26 26 26 26 27 26 26 26 27 27 27 27 27 27 27 28 27 27 27 27 27
28 28 28 28 28 28 28 28 28 27 25 24 23 22 22 24 24 24 24 23 24 25 25 25 25 25 25 25 26 25 25 26 26 25 25 25 25 25
27 27 28 27 27 28 28 27 25 24 24 23 22 22 22 22 23 23 23 23 23 24 25 25 24 24 23 24 25 26 26 25 25 24 24 24 23 22
27 27 28 27 27 27 26 24 23 22 22 21 20 21 21 22 23 23 22 22 23 24 25 25 24 24 24 24 25 25 25 24 24 23 22 21 21 21
26 27 26 26 25 24 23 22 21 21 20 20 20 21 21 21 22 22 22 23 24 25 25 24 24 24 25 24 24 24 23 23 23 22 21 21 20 20
25 24 24 23 22 22 22 20 20 20 19 19 20 20 20 21 22 22 23 24 25 25 25 24 24 25 25 24 23 23 23 22 22 21 21 20 19 19
23 22 22 21 21 21 20 19 19 19 18 19 19 19 19 20 22 23 24 25 25 25 25 25 25 25 24 22 21 21 22 21 21 20 19 19 18 18
23 22 21 20 19 20 20 19 19 18 19 19 19 19 20 21 22 23 24 25 25 25 25 25 25 25 24 22 21 20 20 20 20 19 19 18 18 17
22 20 20 19 19 20 19 18 18 18 19 19 19 20 21 22 24 25 25 25 25 24 24 24 23 23 22 21 20 19 19 18 18 17 17 17 17 16
20 20 20 19 19 19 18 18 18 18 18 19 20 21 22 23 25 26 26 26 24 23 22 22 22 21 21 20 19 19 19 18 18 17 17 16 16 15
19 19 20 20 19 18 18 17 17 18 18 19 21 22 23 24 25 26 25 25 23 22 22 21 21 20 20 18 18 18 18 18 17 16 15 15 14 12
20 19 19 19 18 17 17 17 17 18 19 20 21 22 23 25 25 25 25 23 22 21 20 20 19 19 18 17 16 17 17 17 16 15 14 13 11 8
19 19 18 17 17 17 18 18 18 19 19 20 21 23 24 25 25 25 23 22 21 20 19 19 19 18 17 17 16 16 17 16 15 14 12 10 9 7
18 18 17 17 18 18 19 19 19 19 20 21 22 24 25 26 26 25 23 22 21 20 19 19 18 17 17 17 17 17 16 15 13 12 10 9 8 7
18 18 19 19 19 19 19 20 20 20 21 22 23 25 26 26 26 25 23 21 20 19 19 19 18 17 16 17 17 17 15 13 11 11 9 8 7 6
19 19 20 20 20 20 20 21 21 21 22 23 24 25 26 26 25 24 22 20 19 19 19 18 17 17 17 17 16 16 14 12 11 9 8 7 6 3

GEFSNE_500_meanwind_210.txt.gz
Wind_Speed
34 34 34 35 36 37 37 37 37 37 35 35 35 35 35 35 34 34 36 37 37 37 36 36 36 37 39 39 39 38 37 38 38 37 38 38 39 40
34 34 34 34 35 36 35 36 36 36 35 34 33 33 33 33 34 34 34 34 34 33 34 34 34 35 36 36 36 35 35 35 36 36 37 37 38 39
34 34 34 34 34 34 35 35 35 35 35 33 33 33 33 33 33 32 32 31 31 32 33 33 32 32 32 32 32 33 33 34 34 35 36 37 37 37
34 34 34 34 34 33 34 34 34 34 35 34 33 32 33 32 30 30 30 29 29 30 30 31 31 31 31 30 31 31 31 32 33 34 35 36 36 35
33 33 33 33 33 33 33 33 33 33 34 34 32 31 31 30 29 28 28 28 28 28 29 30 30 30 29 29 29 30 31 31 31 32 33 34 34 33
32 32 32 32 33 33 33 33 33 33 33 32 31 30 28 27 26 25 26 27 27 27 27 28 29 29 28 29 29 30 30 30 31 31 32 32 31 32
31 31 31 32 32 32 32 32 32 32 30 29 28 28 27 26 25 25 25 25 25 25 26 27 28 28 27 28 28 29 29 29 29 29 29 30 30 30
30 30 30 31 31 31 32 32 31 30 29 28 26 25 24 24 24 24 24 24 23 23 24 26 26 26 26 26 27 27 28 28 28 28 28 29 29 29
30 30 30 30 30 31 31 30 29 29 27 26 24 22 22 23 23 24 23 22 23 24 25 25 26 27 26 25 26 27 26 26 26 26 27 27 27 27
30 30 30 30 30 30 29 28 27 26 25 23 22 21 22 22 23 23 22 22 24 25 25 25 26 26 26 25 24 25 25 25 25 26 26 25 25 25
29 29 29 29 29 28 26 25 24 24 23 22 22 21 21 21 22 22 22 22 24 25 25 26 26 27 26 25 25 25 25 25 25 26 25 26 25 24
29 28 27 27 26 25 24 23 23 22 22 22 22 22 22 22 21 20 21 22 24 25 26 26 27 27 26 25 25 25 25 26 25 25 24 24 24 23
27 26 25 24 23 23 22 22 22 22 22 22 22 22 21 20 20 20 21 23 24 25 26 27 27 27 26 25 25 25 24 25 25 25 24 24 23 22
24 24 24 23 23 23 23 21 21 22 21 21 20 20 19 19 20 21 22 24 25 26 27 27 27 26 26 26 25 25 25 24 24 24 23 23 22 22
23 23 23 23 23 23 22 21 20 20 20 19 19 19 19 20 21 22 24 25 26 27 27 28 28 27 26 26 26 25 24 24 23 22 21 21 21 22
24 24 24 23 23 22 21 19 19 19 19 19 19 19 20 21 22 23 24 25 26 27 27 28 28 27 27 27 26 25 24 23 22 21 21 21 21 20
25 24 23 23 22 20 19 19 19 19 19 20 20 21 21 22 23 24 24 25 26 26 27 28 28 27 27 27 26 25 23 23 22 21 20 20 20 18
23 22 21 20 19 19 19 20 20 20 20 20 20 20 21 22 22 24 25 26 26 27 27 28 28 27 27 27 25 23 22 21 21 20 20 19 18 17
21 20 19 19 19 19 19 19 19 19 19 19 20 20 21 22 23 24 25 26 27 27 28 28 28 27 26 25 23 21 21 20 20 19 19 17 17 16
20 20 20 19 19 19 19 19 18 19 19 19 20 21 22 23 24 25 26 27 27 27 28 28 27 26 25 23 21 19 19 19 18 17 17 17 16 15
21 20 20 19 19 19 19 19 19 19 19 20 21 21 22 23 25 26 27 28 28 27 28 28 27 25 23 21 19 18 18 18 17 16 15 15 14 14
21 20 19 19 19 19 19 20 20 20 20 21 21 22 23 24 25 26 27 27 27 27 27 27 25 23 22 20 19 18 17 16 15 14 14 13 12 11
20 19 19 19 19 19 20 20 20 20 21 21 22 23 24 25 26 26 27 27 27 27 27 26 23 22 20 19 18 17 16 15 14 12 12 11 10 9

GEFSNE_500_meanwind_216.txt.gz
Wind_Speed
32 32 32 32 33 33 34 35 36 36 34 34 33 32 31 30 30 30 30 31 31 31 30 30 31 32 33 34 36 36 35 36 37 38 39 39 39 39
33 33 33 32 33 34 34 35 36 35 34 32 32 31 30 30 30 30 30 30 30 30 31 30 30 31 33 33 32 32 33 34 36 35 35 36 37 38
33 33 33 33 33 33 34 34 34 33 32 31 32 30 29 28 29 29 30 31 30 30 30 30 30 31 31 31 31 32 32 32 32 33 33 34 35 36
33 33 33 34 34 34 34 34 33 32 31 30 29 29 28 29 29 30 30 31 30 30 29 29 29 29 30 31 31 30 30 31 31 31 32 33 34 35
33 33 33 33 33 33 33 32 32 31 31 29 29 29 29 29 29 30 30 29 29 28 27 27 28 28 29 30 29 28 28 29 29 30 31 32 33 34
33 33 33 32 32 31 31 30 30 31 30 29 29 29 29 30 29 28 27 26 26 26 25 26 27 26 27 27 26 25 26 28 29 30 30 31 31 32
32 32 31 31 31 30 30 29 30 30 29 29 29 29 29 29 28 27 26 25 25 25 25 26 27 27 26 26 25 25 26 28 28 28 29 29 30 29
31 31 30 30 30 30 30 30 30 29 28 28 28 28 27 27 26 25 25 25 25 24 24 25 27 27 26 26 25 26 26 27 27 28 28 28 27 27
30 30 30 29 29 29 29 29 29 28 27 26 26 26 26 25 25 24 23 24 24 24 24 25 26 27 26 25 25 25 25 26 27 27 27 27 26 26
29 29 29 28 28 28 27 27 27 26 25 25 25 25 24 23 23 22 22 23 23 23 24 24 25 26 25 25 25 24 25 26 26 26 27 27 26 25
29 29 27 27 27 26 26 26 25 24 24 23 23 23 22 21 21 21 21 22 22 23 23 23 24 25 24 25 25 24 25 25 25 25 26 26 25 24
29 28 26 25 26 26 25 25 23 23 22 22 22 22 21 20 21 21 21 22 23 23 23 24 25 25 25 25 24 24 24 24 25 25 26 26 24 23
27 26 25 25 25 25 25 24 23 23 22 22 22 21 20 20 20 21 22 23 23 23 24 25 26 26 25 25 24 23 23 23 24 24 25 23 21 20
26 25 25 25 24 23 24 24 23 22 22 22 21 20 20 20 21 21 22 23 23 24 24 26 26 26 25 25 24 23 23 24 24 24 24 22 20 19
25 24 24 24 23 23 24 23 23 22 22 21 20 20 20 20 21 21 22 23 23 24 25 26 26 26 26 26 25 24 24 24 24 24 23 21 19 18
24 24 24 23 23 23 23 22 22 21 21 21 20 20 20 20 21 21 22 23 24 24 25 26 26 26 26 26 26 24 24 24 23 23 21 20 19 19
25 24 24 24 24 24 23 23 22 21 21 20 20 20 20 21 21 22 23 23 24 24 25 25 26 26 27 26 25 24 24 24 23 21 19 18 18 18
25 24 24 24 24 24 23 23 22 22 22 21 20 20 21 21 21 22 22 23 24 25 25 25 26 26 27 25 24 23 23 23 22 20 18 18 17 16
25 24 24 24 23 23 22 22 22 22 22 21 21 21 21 21 21 22 23 24 24 25 25 25 25 26 25 25 23 23 23 22 21 19 18 16 16 16
24 24 23 23 23 22 22 22 22 22 22 22 22 21 21 21 21 22 23 24 25 25 25 24 25 25 25 24 23 22 22 21 20 18 16 15 16 16
24 23 23 23 22 21 22 22 22 22 22 22 21 21 21 21 22 22 24 24 25 25 24 24 25 25 25 24 22 22 21 20 19 17 16 15 15 15
22 22 22 22 21 21 21 21 21 21 21 21 21 20 21 21 22 23 24 24 24 24 23 23 24 24 24 24 22 21 20 19 18 17 15 15 14 13
22 21 22 21 21 20 20 20 20 20 20 20 20 20 21 22 22 23 24 24 24 24 23 22 23 24 24 24 22 21 19 18 16 15 14 13 12 12

GEFSNE_500_meanwind_222.txt.gz
Wind_Speed
33 33 34 33 33 33 33 33 33 32 31 31 31 31 31 31 31 31 31 31 32 32 31 31 32 32 32 33 33 33 33 32 31 31 32 33 34 34
33 33 33 32 32 33 33 33 33 33 31 30 30 30 31 31 30 30 31 31 32 32 31 31 31 32 31 31 31 32 31 30 29 30 30 31 32 33
33 33 32 32 32 32 33 32 32 32 31 30 30 30 31 31 31 31 31 31 30 30 29 29 30 30 30 31 31 30 29 29 29 29 29 30 31 33
33 32 32 32 32 32 32 31 31 31 31 30 30 30 31 31 30 30 30 30 29 28 27 28 29 30 30 30 29 29 28 28 27 28 29 31 31 32
32 31 31 31 31 31 30 30 30 30 30 30 30 30 30 29 29 29 28 28 28 28 28 29 29 29 29 29 29 28 27 27 26 27 29 30 30 29
31 31 31 30 30 30 30 29 29 30 30 30 29 29 28 28 27 27 27 27 27 27 28 28 28 28 28 28 27 26 26 26 27 28 29 29 28 27
31 31 30 31 31 30 29 29 29 29 29 29 28 28 27 27 26 26 26 26 26 26 27 27 27 27 28 27 27 26 27 27 27 28 28 28 27 26
30 30 30 30 30 30 29 29 29 29 29 28 27 27 27 27 26 25 26 26 26 26 26 26 27 27 26 26 27 27 27 27 27 28 28 27 26 26
30 30 29 29 29 29 30 30 30 29 29 28 27 27 27 26 25 25 25 26 27 26 26 26 26 26 26 26 26 26 27 27 27 27 27 26 26 27
30 30 29 29 29 30 30 30 29 28 28 28 27 27 27 26 25 25 25 26 26 25 25 26 26 26 25 26 26 26 27 27 27 27 26 25 25 26
30 30 29 29 29 29 29 29 29 29 28 28 27 26 26 25 25 24 24 25 25 25 25 26 26 25 25 25 25 27 28 28 28 28 26 26 26 26
31 30 30 29 29 29 29 29 29 29 28 27 27 27 26 25 25 24 24 24 24 24 25 25 25 25 25 25 26 27 28 28 27 27 26 26 26 25
30 30 29 29 29 28 28 27 27 26 26 26 26 26 25 25 24 24 23 24 24 23 24 25 25 25 25 25 26 27 28 28 28 27 26 26 25 23
29 28 28 28 28 28 27 26 25 24 24 24 23 23 24 24 23 23 23 23 23 23 24 25 25 25 25 25 26 26 28 28 28 27 26 25 23 22
29 28 27 27 27 26 26 25 24 23 23 23 22 23 23 23 22 22 22 22 22 23 23 24 25 25 24 25 25 26 27 27 27 26 25 23 21 21
28 27 26 25 25 25 24 24 24 24 23 23 23 23 22 22 21 21 21 21 22 22 23 24 24 24 23 24 25 26 27 26 26 25 24 21 20 20
29 28 27 25 24 24 24 23 23 23 23 23 23 22 22 22 22 21 21 21 22 22 23 23 23 23 23 24 25 25 26 26 26 25 23 21 21 21
28 27 27 26 25 25 24 23 24 24 24 23 23 22 22 22 21 21 21 21 21 21 22 22 22 22 24 24 25 25 26 27 26 24 21 20 20 19
27 26 26 26 26 25 24 23 23 24 24 23 23 22 21 21 20 20 20 20 20 20 21 21 21 22 23 23 25 25 27 27 25 23 20 20 19 19
28 27 26 26 25 25 25 24 24 24 24 23 22 21 20 20 19 19 19 19 20 20 20 21 22 22 22 23 24 26 27 26 23 21 20 19 19 19
27 27 26 25 25 25 24 24 23 22 22 21 20 20 19 19 19 19 19 19 19 19 20 21 21 22 22 23 25 25 26 25 23 21 19 18 17 17
25 25 25 24 24 24 23 23 22 21 21 21 20 20 20 20 19 19 19 20 19 19 20 21 21 21 22 23 24 25 24 23 22 20 19 17 16 15
24 24 24 24 24 23 22 22 22 22 21 21 20 20 20 20 20 20 20 19 19 20 20 20 20 21 22 23 24 24 22 21 20 19 17 15 14 13

GEFSNE_500_meanwind_228.txt.gz
Wind_Speed
32 32 32 32 33 33 33 32 32 31 31 31 31 32 32 32 32 31 31 31 30 30 30 30 30 29 29 30 30 31 31 31 31 31 31 32 32 33
32 32 32 32 32 32 32 32 32 32 31 31 31 32 32 31 31 32 31 31 30 30 30 30 30 29 29 29 30 30 30 30 31 31 30 31 31 33
32 32 32 32 31 31 31 31 32 32 31 31 31 32 32 32 32 32 31 31 31 31 30 29 29 29 29 29 29 29 29 30 30 30 29 29 30 31
33 32 32 31 31 31 31 31 31 32 31 31 31 32 32 32 31 31 30 30 30 30 29 29 29 28 28 28 28 28 29 29 29 28 29 29 30 31
33 32 32 31 31 31 31 31 31 31 31 31 31 31 31 30 30 29 29 28 28 28 28 28 28 28 28 27 27 28 28 29 29 28 28 29 30 30
32 32 32 31 31 31 32 32 32 32 31 30 30 30 30 30 29 29 28 28 27 28 28 27 27 27 28 27 28 28 29 28 28 28 28 28 29 30
32 31 31 31 31 32 32 32 31 31 30 29 29 29 29 29 29 29 28 27 27 27 27 26 27 27 26 27 27 27 27 27 27 27 27 27 28 29
32 31 30 30 31 31 32 31 30 30 29 29 29 28 28 28 29 28 27 27 26 27 27 26 27 26 25 25 25 25 25 25 26 26 27 28 28 29
33 32 31 30 30 30 30 30 30 29 29 29 28 27 28 28 28 28 27 26 26 26 26 26 26 25 24 24 24 24 24 24 24 25 26 27 28 28
33 33 32 31 30 30 30 30 29 29 29 28 28 28 28 27 27 27 27 26 26 26 26 26 25 24 24 23 23 23 23 23 23 24 25 27 27 27
33 32 32 31 31 30 30 30 29 29 29 28 28 28 28 27 27 27 27 26 26 26 26 25 24 24 24 24 23 23 23 24 25 25 26 27 26 26
32 31 31 31 30 31 30 29 29 29 29 29 28 28 27 26 27 27 27 26 26 25 24 24 24 23 23 23 23 23 23 24 25 25 25 26 25 25
31 31 31 31 31 30 29 28 28 28 28 28 28 27 27 27 27 26 26 26 25 24 23 23 22 22 22 22 22 23 23 24 25 26 26 25 24 24
32 31 31 31 30 29 29 28 28 27 27 27 27 26 26 26 25 24 24 24 23 22 21 21 21 21 21 21 22 22 23 24 24 25 25 24 24 24
33 32 31 30 30 29 28 28 27 27 27 26 25 24 24 23 22 22 22 21 21 20 20 20 20 21 21 21 22 22 23 23 23 24 24 23 23 23
33 32 30 29 29 29 28 27 27 26 25 24 23 22 22 21 20 20 20 20 20 19 19 20 20 20 20 20 21 22 22 23 23 23 23 23 23 22
32 31 30 29 29 29 29 28 27 25 24 23 23 22 21 21 20 20 20 20 20 19 19 19 20 20 20 19 20 21 22 22 23 23 22 21 22 22
31 30 29 29 29 28 28 27 26 25 24 23 23 22 22 21 20 21 21 20 20 19 19 19 19 19 19 20 20 21 21 23 23 22 21 21 21 21
30 30 29 29 29 28 28 27 27 26 25 23 22 22 21 21 21 21 20 20 20 19 18 18 18 18 18 19 20 21 21 22 22 22 21 20 20 19
30 30 29 29 29 28 28 27 26 26 25 24 23 22 22 21 21 21 21 20 19 18 17 17 18 18 18 19 19 21 21 21 21 21 20 19 18 17
30 30 29 29 29 29 28 27 26 25 25 25 24 23 23 22 22 21 20 19 18 17 17 17 17 18 18 19 19 19 20 21 20 20 19 17 16 16
29 30 30 29 28 28 28 27 26 25 25 24 25 24 24 22 21 21 20 19 18 17 18 17 17 17 17 18 18 18 18 20 20 20 19 17 16 15
30 30 30 29 28 28 28 27 26 25 25 24 24 24 23 22 21 20 19 19 18 17 17 17 16 16 16 16 16 16 17 19 19 19 19 17 16 15

GEFSNE_500_meanwind_234.txt.gz
Wind_Speed
34 34 33 33 34 34 35 35 35 34 34 35 35 34 34 34 34 33 33 33 33 33 33 33 33 33 34 33 33 32 31 31 31 31 31 32 32 32
34 34 33 33 34 34 34 35 35 35 33 33 34 33 34 34 33 33 33 33 33 33 33 33 33 34 34 33 33 31 31 31 31 31 31 31 32 31
34 34 34 34 34 34 34 34 34 33 32 32 33 32 33 33 33 33 33 33 32 32 33 33 33 33 32 32 31 31 30 30 30 31 31 31 31 31
35 34 33 33 33 33 33 33 33 32 32 31 31 32 33 33 33 33 33 33 32 32 32 32 32 32 31 30 30 30 30 30 30 31 31 31 31 31
36 35 34 34 33 33 33 33 32 32 31 31 31 32 32 33 32 32 32 32 32 31 31 31 30 30 30 30 29 29 29 29 30 30 31 31 32 32
37 36 35 34 34 34 33 32 31 31 31 31 32 32 32 32 32 31 31 31 31 31 31 30 30 29 28 28 28 28 29 29 30 30 30 31 30 30
36 35 34 34 33 33 32 32 32 31 31 31 31 32 32 32 31 31 31 31 31 31 30 30 30 29 28 28 28 28 28 29 29 30 30 29 28 28
36 35 36 34 32 33 33 33 32 32 31 31 31 32 32 31 31 31 30 30 30 30 30 29 29 28 28 28 28 28 29 28 29 29 28 28 27 27
37 36 35 35 33 33 33 33 32 32 31 31 31 31 31 31 31 31 31 30 29 29 28 28 28 28 28 28 28 28 28 28 27 27 27 27 26 26
36 36 35 34 33 32 32 32 32 32 32 32 31 31 31 31 31 31 31 30 29 28 28 28 27 27 27 28 29 28 27 27 26 25 25 25 25 25
37 35 34 33 33 33 33 33 32 32 32 32 31 31 31 31 31 30 29 28 27 26 27 27 26 25 26 27 28 28 27 27 26 25 24 24 24 24
37 36 35 35 34 34 34 33 32 32 32 32 31 31 31 30 29 28 27 27 26 26 26 26 25 25 24 26 26 25 25 25 25 24 24 23 23 23
37 37 36 35 34 34 33 33 32 32 31 31 30 30 30 29 28 27 26 26 25 25 25 24 24 23 23 24 23 24 24 24 23 23 22 22 22 22
37 37 36 35 34 34 33 33 32 31 31 30 29 28 28 27 26 26 25 25 24 24 23 23 22 22 22 22 22 22 22 22 22 21 21 21 22 21
37 36 35 35 34 33 32 31 31 31 30 29 28 26 25 25 24 24 24 23 23 23 23 22 21 22 22 21 20 21 21 21 21 21 20 21 20 19
35 34 34 34 33 32 31 30 30 30 30 29 27 26 25 24 24 23 23 23 23 23 22 21 21 22 22 21 20 21 21 20 20 20 19 19 19 19
34 33 33 32 32 32 31 30 30 29 28 27 27 26 25 24 24 23 23 23 23 22 22 21 21 21 21 21 21 20 20 20 19 19 18 18 18 17
33 32 32 32 31 31 31 30 30 28 27 27 26 26 25 25 24 23 23 23 22 21 21 20 20 20 21 20 20 19 18 18 18 18 18 18 17 16
33 32 32 31 31 31 30 29 29 28 27 26 25 25 24 24 23 23 22 22 21 20 21 20 20 20 20 19 18 18 17 17 17 18 17 17 16 16
33 32 32 32 31 31 30 29 28 28 27 25 24 24 23 23 22 22 21 21 21 20 20 20 19 19 18 18 17 16 16 16 16 17 17 16 16 15
31 32 32 32 31 30 29 28 28 27 25 24 24 23 23 23 22 21 21 21 21 20 19 19 18 18 17 16 15 15 15 15 15 16 16 15 14 15
30 30 30 30 30 29 28 27 27 26 25 25 24 23 22 22 21 21 21 21 20 20 18 18 17 16 15 14 14 14 14 14 15 15 15 15 14 14
29 29 29 28 28 27 26 25 25 25 25 25 24 24 23 22 21 21 21 21 20 19 17 16 16 15 14 14 14 14 14 14 14 14 15 14 14 14